Time,TemperatureF,DewpointF,PressureIn,WindDirection,WindDirectionDegrees,WindSpeedMPH,WindSpeedGustMPH,Humidity,HourlyPrecipIn,Conditions,Clouds,dailyrainin,SoftwareType,DateUTC
2013-01-11 00:00:00,47.7,42.4,-100.00,SSW,202,3.0,10.0,82,0.00,,,0.04,meteohub,2013-01-11 06:00:00,
2013-01-11 00:01:00,47.7,42.8,-100.00,SSW,202,3.0,10.0,83,0.00,,,0.04,meteohub,2013-01-11 06:01:00,
2013-01-11 00:05:00,47.5,42.6,-100.00,SSW,202,4.0,5.0,83,0.00,,,0.00,meteohub,2013-01-11 06:05:00,
2013-01-11 00:06:00,47.5,42.6,-100.00,SSW,202,2.0,5.0,83,0.00,,,0.00,meteohub,2013-01-11 06:06:00,
2013-01-11 00:10:00,47.3,42.4,-100.00,SSW,202,2.0,5.0,83,0.00,,,0.00,meteohub,2013-01-11 06:10:00,
2013-01-11 00:11:00,47.3,42.4,-100.00,SSW,202,2.0,5.0,83,0.00,,,0.00,meteohub,2013-01-11 06:11:00,
2013-01-11 00:12:00,47.3,42.4,-100.00,SSW,202,3.0,5.0,83,0.00,,,0.00,meteohub,2013-01-11 06:12:00,
2013-01-11 00:15:00,47.1,42.6,-100.00,SSW,202,4.0,5.0,84,0.00,,,0.00,meteohub,2013-01-11 06:15:00,
2013-01-11 00:16:00,47.1,42.6,-100.00,SSW,202,3.0,6.0,84,0.00,,,0.00,meteohub,2013-01-11 06:16:00,
2013-01-11 00:17:00,47.1,42.6,-100.00,SSW,202,3.0,6.0,84,0.00,,,0.00,meteohub,2013-01-11 06:17:00,
2013-01-11 00:21:00,47.1,42.6,-100.00,SSW,198,5.0,6.0,84,0.00,,,0.00,meteohub,2013-01-11 06:21:00,
2013-01-11 00:22:00,47.1,42.6,-100.00,SSW,196,4.0,6.0,84,0.00,,,0.00,meteohub,2013-01-11 06:22:00,
2013-01-11 00:26:00,47.1,42.6,-100.00,SSW,192,5.0,7.0,84,0.00,,,0.00,meteohub,2013-01-11 06:26:00,
2013-01-11 00:27:00,47.1,42.6,-100.00,South,190,5.0,7.0,84,0.00,,,0.00,meteohub,2013-01-11 06:27:00,
2013-01-11 00:31:00,47.3,43.0,-100.00,South,186,4.0,7.0,85,0.00,,,0.00,meteohub,2013-01-11 06:31:00,
2013-01-11 00:32:00,47.3,42.8,-100.00,South,186,4.0,7.0,84,0.00,,,0.00,meteohub,2013-01-11 06:32:00,
2013-01-11 00:33:00,47.5,42.8,-100.00,South,185,6.0,7.0,84,0.00,,,0.00,meteohub,2013-01-11 06:33:00,
2013-01-11 00:36:00,47.5,42.8,-100.00,South,182,6.0,7.0,84,0.00,,,0.00,meteohub,2013-01-11 06:36:00,
2013-01-11 00:37:00,47.7,43.0,-100.00,South,182,4.0,7.0,84,0.00,,,0.00,meteohub,2013-01-11 06:37:00,
2013-01-11 00:38:00,47.7,43.0,-100.00,South,182,4.0,7.0,84,0.00,,,0.00,meteohub,2013-01-11 06:38:00,
2013-01-11 00:41:00,47.7,43.0,-100.00,South,182,4.0,7.0,84,0.00,,,0.00,meteohub,2013-01-11 06:41:00,
2013-01-11 00:42:00,47.7,43.0,-100.00,South,182,3.0,7.0,84,0.00,,,0.00,meteohub,2013-01-11 06:42:00,
2013-01-11 00:43:00,47.7,43.0,-100.00,South,182,4.0,7.0,84,0.00,,,0.00,meteohub,2013-01-11 06:43:00,
2013-01-11 00:46:00,47.5,42.8,-100.00,South,182,4.0,7.0,84,0.00,,,0.00,meteohub,2013-01-11 06:46:00,
2013-01-11 00:47:00,47.5,42.8,-100.00,South,182,4.0,7.0,84,0.00,,,0.00,meteohub,2013-01-11 06:47:00,
2013-01-11 00:48:00,47.5,42.8,-100.00,South,182,3.0,7.0,84,0.00,,,0.00,meteohub,2013-01-11 06:48:00,
2013-01-11 00:52:00,47.5,42.8,-100.00,South,182,5.0,7.0,84,0.00,,,0.00,meteohub,2013-01-11 06:52:00,
2013-01-11 00:53:00,47.5,42.8,-100.00,South,182,3.0,7.0,84,0.00,,,0.00,meteohub,2013-01-11 06:53:00,
2013-01-11 00:57:00,47.5,42.8,-100.00,South,182,5.0,6.0,84,0.00,,,0.00,meteohub,2013-01-11 06:57:00,
2013-01-11 00:58:00,47.5,42.8,-100.00,South,182,3.0,6.0,84,0.00,,,0.00,meteohub,2013-01-11 06:58:00,
2013-01-11 01:02:00,47.3,42.8,-100.00,South,181,3.0,6.0,84,0.00,,,0.00,meteohub,2013-01-11 07:02:00,
2013-01-11 01:03:00,47.3,42.8,-100.00,South,181,3.0,6.0,84,0.00,,,0.00,meteohub,2013-01-11 07:03:00,
2013-01-11 01:07:00,47.1,42.6,-100.00,South,181,4.0,6.0,84,0.00,,,0.00,meteohub,2013-01-11 07:07:00,
2013-01-11 01:08:00,47.1,42.6,-100.00,South,181,5.0,6.0,84,0.00,,,0.00,meteohub,2013-01-11 07:08:00,
2013-01-11 01:12:00,47.1,42.6,-100.00,South,177,6.0,6.0,84,0.00,,,0.00,meteohub,2013-01-11 07:12:00,
2013-01-11 01:13:00,47.1,42.6,-100.00,South,175,7.0,7.0,84,0.00,,,0.00,meteohub,2013-01-11 07:13:00,
2013-01-11 01:14:00,47.1,42.6,-100.00,South,174,6.0,6.0,84,0.00,,,0.00,meteohub,2013-01-11 07:14:00,
2013-01-11 01:18:00,46.9,42.4,-100.00,South,173,5.0,7.0,84,0.00,,,0.00,meteohub,2013-01-11 07:18:00,
2013-01-11 01:19:00,46.9,42.4,-100.00,South,173,4.0,7.0,84,0.00,,,0.00,meteohub,2013-01-11 07:19:00,
2013-01-11 01:23:00,46.8,42.3,-100.00,South,173,2.0,9.0,84,0.00,,,0.00,meteohub,2013-01-11 07:23:00,
2013-01-11 01:24:00,46.8,42.3,-100.00,South,173,2.0,9.0,84,0.00,,,0.00,meteohub,2013-01-11 07:24:00,
2013-01-11 01:29:00,46.8,42.4,-100.00,South,172,4.0,9.0,85,0.00,,,0.00,meteohub,2013-01-11 07:29:00,
2013-01-11 01:30:00,46.8,42.4,-100.00,South,172,7.0,9.0,85,0.00,,,0.00,meteohub,2013-01-11 07:30:00,
2013-01-11 01:34:00,46.8,42.4,-100.00,South,172,4.0,9.0,85,0.00,,,0.00,meteohub,2013-01-11 07:34:00,
2013-01-11 01:35:00,46.8,42.4,-100.00,South,172,5.0,10.0,85,0.00,,,0.00,meteohub,2013-01-11 07:35:00,
2013-01-11 01:39:00,46.8,42.4,-100.00,South,172,4.0,10.0,85,0.00,,,0.00,meteohub,2013-01-11 07:39:00,
2013-01-11 01:40:00,46.8,42.4,-100.00,South,172,4.0,10.0,85,0.00,,,0.00,meteohub,2013-01-11 07:40:00,
2013-01-11 01:44:00,46.8,42.4,-100.00,South,172,3.0,10.0,85,0.00,,,0.00,meteohub,2013-01-11 07:44:00,
2013-01-11 01:45:00,46.8,42.4,-100.00,South,172,5.0,10.0,85,0.00,,,0.00,meteohub,2013-01-11 07:45:00,
2013-01-11 01:46:00,46.8,42.4,-100.00,South,172,4.0,7.0,85,0.00,,,0.00,meteohub,2013-01-11 07:46:00,
2013-01-11 01:49:00,46.6,42.3,-100.00,South,172,2.0,7.0,85,0.00,,,0.00,meteohub,2013-01-11 07:49:00,
2013-01-11 01:50:00,46.6,42.3,-100.00,South,172,2.0,7.0,85,0.00,,,0.00,meteohub,2013-01-11 07:50:00,
2013-01-11 01:51:00,46.6,42.3,-100.00,South,172,3.0,7.0,85,0.00,,,0.00,meteohub,2013-01-11 07:51:00,
2013-01-11 01:54:00,46.6,42.3,-100.00,South,172,2.0,7.0,85,0.00,,,0.00,meteohub,2013-01-11 07:54:00,
2013-01-11 01:55:00,46.6,42.3,-100.00,South,172,4.0,6.0,85,0.00,,,0.00,meteohub,2013-01-11 07:55:00,
2013-01-11 01:56:00,46.6,42.3,-100.00,South,172,4.0,6.0,85,0.00,,,0.00,meteohub,2013-01-11 07:56:00,
2013-01-11 01:57:00,46.6,42.3,-100.00,South,172,3.0,6.0,85,0.00,,,0.00,meteohub,2013-01-11 07:57:00,
2013-01-11 02:00:00,46.4,42.1,-100.00,South,172,4.0,6.0,85,0.00,,,0.00,meteohub,2013-01-11 08:00:00,
2013-01-11 02:01:00,46.4,42.1,-100.00,South,172,3.0,6.0,85,0.00,,,0.00,meteohub,2013-01-11 08:01:00,
2013-01-11 02:02:00,46.4,42.1,-100.00,South,172,4.0,6.0,85,0.00,,,0.00,meteohub,2013-01-11 08:02:00,
2013-01-11 02:05:00,46.6,42.6,-100.00,South,173,5.0,6.0,86,0.00,,,0.00,meteohub,2013-01-11 08:05:00,
2013-01-11 02:06:00,46.6,42.6,-100.00,South,173,2.0,6.0,86,0.00,,,0.00,meteohub,2013-01-11 08:06:00,
2013-01-11 02:07:00,46.6,42.6,-100.00,South,173,5.0,6.0,86,0.00,,,0.00,meteohub,2013-01-11 08:07:00,
2013-01-11 02:10:00,46.6,42.6,-100.00,South,173,3.0,7.0,86,0.00,,,0.00,meteohub,2013-01-11 08:10:00,
2013-01-11 02:11:00,46.6,42.6,-100.00,South,173,3.0,7.0,86,0.00,,,0.00,meteohub,2013-01-11 08:11:00,
2013-01-11 02:12:00,46.6,42.6,-100.00,South,173,6.0,7.0,86,0.00,,,0.00,meteohub,2013-01-11 08:12:00,
2013-01-11 02:15:00,46.8,42.8,-100.00,South,175,5.0,7.0,86,0.00,,,0.00,meteohub,2013-01-11 08:15:00,
2013-01-11 02:16:00,46.8,42.8,-100.00,South,177,5.0,7.0,86,0.00,,,0.00,meteohub,2013-01-11 08:16:00,
2013-01-11 02:17:00,46.8,42.8,-100.00,South,178,5.0,7.0,86,0.00,,,0.00,meteohub,2013-01-11 08:17:00,
2013-01-11 02:21:00,46.8,42.8,-100.00,South,186,4.0,9.0,86,0.00,,,0.00,meteohub,2013-01-11 08:21:00,
2013-01-11 02:22:00,46.9,43.0,-100.00,South,189,7.0,9.0,86,0.00,,,0.00,meteohub,2013-01-11 08:22:00,
2013-01-11 02:23:00,46.9,43.0,-100.00,South,189,5.0,9.0,86,0.00,,,0.00,meteohub,2013-01-11 08:23:00,
2013-01-11 02:26:00,47.1,43.2,-100.00,South,191,4.0,10.0,86,0.00,,,0.00,meteohub,2013-01-11 08:26:00,
2013-01-11 02:27:00,47.1,43.2,-100.00,SSW,192,6.0,10.0,86,0.00,,,0.00,meteohub,2013-01-11 08:27:00,
2013-01-11 02:28:00,47.1,43.2,-100.00,SSW,192,7.0,10.0,86,0.00,,,0.00,meteohub,2013-01-11 08:28:00,
2013-01-11 02:31:00,47.3,43.0,-100.00,SSW,192,2.0,10.0,85,0.00,,,0.00,meteohub,2013-01-11 08:31:00,
2013-01-11 02:32:00,47.3,43.0,-100.00,SSW,192,6.0,10.0,85,0.00,,,0.00,meteohub,2013-01-11 08:32:00,
2013-01-11 02:34:00,47.3,43.0,-100.00,SSW,192,6.0,10.0,85,0.00,,,0.00,meteohub,2013-01-11 08:34:00,
2013-01-11 02:37:00,47.3,43.0,-100.00,SSW,192,4.0,10.0,85,0.00,,,0.00,meteohub,2013-01-11 08:37:00,
2013-01-11 02:38:00,47.1,42.8,-100.00,SSW,192,3.0,10.0,85,0.00,,,0.00,meteohub,2013-01-11 08:38:00,
2013-01-11 02:39:00,47.1,42.8,-100.00,SSW,192,5.0,10.0,85,0.00,,,0.00,meteohub,2013-01-11 08:39:00,
2013-01-11 02:43:00,46.9,42.6,-100.00,SSW,192,4.0,9.0,85,0.00,,,0.00,meteohub,2013-01-11 08:43:00,
2013-01-11 02:44:00,46.9,42.6,-100.00,SSW,193,4.0,9.0,85,0.00,,,0.00,meteohub,2013-01-11 08:44:00,
2013-01-11 02:48:00,46.9,42.6,-100.00,SSW,192,3.0,9.0,85,0.00,,,0.00,meteohub,2013-01-11 08:48:00,
2013-01-11 02:49:00,46.9,42.6,-100.00,SSW,192,2.0,9.0,85,0.00,,,0.00,meteohub,2013-01-11 08:49:00,
2013-01-11 02:54:00,46.8,42.4,-100.00,SSW,192,3.0,8.0,85,0.00,,,0.00,meteohub,2013-01-11 08:54:00,
2013-01-11 02:55:00,46.8,42.4,-100.00,SSW,192,2.0,8.0,85,0.00,,,0.00,meteohub,2013-01-11 08:55:00,
2013-01-11 02:59:00,46.8,42.4,-100.00,SSW,192,2.0,8.0,85,0.00,,,0.00,meteohub,2013-01-11 08:59:00,
2013-01-11 03:00:00,46.8,42.4,-100.00,SSW,192,5.0,8.0,85,0.00,,,0.00,meteohub,2013-01-11 09:00:00,
2013-01-11 03:04:00,46.8,42.4,-100.00,South,189,6.0,6.0,85,0.00,,,0.00,meteohub,2013-01-11 09:04:00,
2013-01-11 03:05:00,46.8,42.4,-100.00,South,189,5.0,6.0,85,0.00,,,0.00,meteohub,2013-01-11 09:05:00,
2013-01-11 03:10:00,46.6,42.3,-100.00,South,184,6.0,9.0,85,0.00,,,0.00,meteohub,2013-01-11 09:10:00,
2013-01-11 03:11:00,46.6,42.3,-100.00,South,184,4.0,9.0,85,0.00,,,0.00,meteohub,2013-01-11 09:11:00,
2013-01-11 03:15:00,46.6,42.3,-100.00,South,183,1.0,9.0,85,0.00,,,0.00,meteohub,2013-01-11 09:15:00,
2013-01-11 03:16:00,46.6,42.3,-100.00,South,183,3.0,8.0,85,0.00,,,0.00,meteohub,2013-01-11 09:16:00,
2013-01-11 03:20:00,46.6,42.3,-100.00,South,182,3.0,8.0,85,0.00,,,0.00,meteohub,2013-01-11 09:20:00,
2013-01-11 03:21:00,46.6,42.3,-100.00,South,182,4.0,8.0,85,0.00,,,0.00,meteohub,2013-01-11 09:21:00,
2013-01-11 03:26:00,46.4,42.1,-100.00,South,178,6.0,9.0,85,0.00,,,0.00,meteohub,2013-01-11 09:26:00,
2013-01-11 03:27:00,46.4,42.4,-100.00,South,178,4.0,9.0,86,0.00,,,0.00,meteohub,2013-01-11 09:27:00,
2013-01-11 03:31:00,46.6,42.6,-100.00,South,178,5.0,10.0,86,0.00,,,0.00,meteohub,2013-01-11 09:31:00,
2013-01-11 03:32:00,46.6,42.6,-100.00,South,178,6.0,10.0,86,0.00,,,0.00,meteohub,2013-01-11 09:32:00,
2013-01-11 03:36:00,46.8,42.8,-100.00,South,177,3.0,12.0,86,0.00,,,0.00,meteohub,2013-01-11 09:36:00,
2013-01-11 03:37:00,46.8,42.4,-100.00,South,178,5.0,12.0,85,0.00,,,0.00,meteohub,2013-01-11 09:37:00,
2013-01-11 03:41:00,46.8,42.4,-100.00,South,170,6.0,12.0,85,0.00,,,0.00,meteohub,2013-01-11 09:41:00,
2013-01-11 03:42:00,46.8,42.4,-100.00,South,171,5.0,12.0,85,0.00,,,0.00,meteohub,2013-01-11 09:42:00,
2013-01-11 03:46:00,46.8,42.4,-100.00,South,173,3.0,11.0,85,0.00,,,0.00,meteohub,2013-01-11 09:46:00,
2013-01-11 03:47:00,46.8,42.4,-100.00,South,173,5.0,11.0,85,0.00,,,0.00,meteohub,2013-01-11 09:47:00,
2013-01-11 03:48:00,46.8,42.4,-100.00,South,172,7.0,11.0,85,0.00,,,0.00,meteohub,2013-01-11 09:48:00,
2013-01-11 03:51:00,46.8,42.4,-100.00,South,175,5.0,12.0,85,0.00,,,0.00,meteohub,2013-01-11 09:51:00,
2013-01-11 03:52:00,46.8,42.4,-100.00,South,175,6.0,12.0,85,0.00,,,0.00,meteohub,2013-01-11 09:52:00,
2013-01-11 03:53:00,46.8,42.4,-100.00,South,173,7.0,12.0,85,0.00,,,0.00,meteohub,2013-01-11 09:53:00,
2013-01-11 03:57:00,46.8,42.4,-100.00,SSE,167,6.0,12.0,85,0.00,,,0.00,meteohub,2013-01-11 09:57:00,
2013-01-11 03:58:00,46.8,42.4,-100.00,South,169,7.0,12.0,85,0.00,,,0.00,meteohub,2013-01-11 09:58:00,
2013-01-11 04:02:00,46.8,42.4,-100.00,South,172,4.0,12.0,85,0.00,,,0.00,meteohub,2013-01-11 10:02:00,
2013-01-11 04:03:00,46.8,42.4,-100.00,South,173,7.0,12.0,85,0.00,,,0.00,meteohub,2013-01-11 10:03:00,
2013-01-11 04:07:00,46.8,42.4,-100.00,South,174,4.0,11.0,85,0.00,,,0.00,meteohub,2013-01-11 10:07:00,
2013-01-11 04:08:00,46.8,42.4,-100.00,South,173,8.0,11.0,85,0.00,,,0.00,meteohub,2013-01-11 10:08:00,
2013-01-11 04:12:00,46.8,42.4,-100.00,South,177,4.0,13.0,85,0.00,,,0.00,meteohub,2013-01-11 10:12:00,
2013-01-11 04:13:00,46.8,42.4,-100.00,South,179,10.0,13.0,85,0.00,,,0.00,meteohub,2013-01-11 10:13:00,
2013-01-11 04:14:00,46.8,42.4,-100.00,South,170,4.0,13.0,85,0.00,,,0.00,meteohub,2013-01-11 10:14:00,
2013-01-11 04:17:00,46.9,42.6,-100.00,South,180,5.0,15.0,85,0.00,,,0.00,meteohub,2013-01-11 10:17:00,
2013-01-11 04:18:00,46.9,42.6,-100.00,South,185,6.0,15.0,85,0.00,,,0.00,meteohub,2013-01-11 10:18:00,
2013-01-11 04:19:00,46.9,42.6,-100.00,South,181,4.0,15.0,85,0.00,,,0.00,meteohub,2013-01-11 10:19:00,
2013-01-11 04:23:00,47.1,42.8,-100.00,South,179,7.0,15.0,85,0.00,,,0.00,meteohub,2013-01-11 10:23:00,
2013-01-11 04:24:00,47.1,42.8,-100.00,South,179,6.0,15.0,85,0.00,,,0.00,meteohub,2013-01-11 10:24:00,
2013-01-11 04:28:00,47.1,42.8,-100.00,SSW,194,12.0,15.0,85,0.00,,,0.00,meteohub,2013-01-11 10:28:00,
2013-01-11 04:29:00,47.1,42.8,-100.00,South,189,3.0,15.0,85,0.00,,,0.00,meteohub,2013-01-11 10:29:00,
2013-01-11 04:33:00,47.3,42.8,-100.00,South,183,11.0,18.0,84,0.00,,,0.00,meteohub,2013-01-11 10:33:00,
2013-01-11 04:34:00,47.3,42.8,-100.00,South,182,5.0,18.0,84,0.00,,,0.00,meteohub,2013-01-11 10:34:00,
2013-01-11 04:38:00,47.3,42.8,-100.00,South,175,9.0,18.0,84,0.00,,,0.00,meteohub,2013-01-11 10:38:00,
2013-01-11 04:39:00,47.3,42.8,-100.00,South,177,10.0,18.0,84,0.00,,,0.00,meteohub,2013-01-11 10:39:00,
2013-01-11 04:43:00,47.1,42.6,-100.00,South,171,8.0,18.0,84,0.00,,,0.00,meteohub,2013-01-11 10:43:00,
2013-01-11 04:44:00,47.1,42.6,-100.00,South,180,8.0,18.0,84,0.00,,,0.00,meteohub,2013-01-11 10:44:00,
2013-01-11 04:49:00,46.9,42.4,-100.00,South,182,5.0,13.0,84,0.00,,,0.00,meteohub,2013-01-11 10:49:00,
2013-01-11 04:52:00,46.8,42.3,-100.00,South,182,9.0,13.0,84,0.00,,,0.00,meteohub,2013-01-11 10:52:00,
2013-01-11 04:54:00,46.8,42.3,-100.00,SSW,193,12.0,13.0,84,0.00,,,0.00,meteohub,2013-01-11 10:54:00,
2013-01-11 04:55:00,46.8,42.3,-100.00,South,188,4.0,13.0,84,0.00,,,0.00,meteohub,2013-01-11 10:55:00,
2013-01-11 04:57:00,46.8,42.4,-100.00,South,188,9.0,16.0,85,0.00,,,0.00,meteohub,2013-01-11 10:57:00,
2013-01-11 04:59:00,46.8,42.4,-100.00,South,185,14.0,16.0,85,0.00,,,0.00,meteohub,2013-01-11 10:59:00,
2013-01-11 05:00:00,46.9,42.6,-100.00,South,188,10.0,16.0,85,0.00,,,0.00,meteohub,2013-01-11 11:00:00,
2013-01-11 05:02:00,46.9,42.6,-100.00,SSW,192,7.0,16.0,85,0.00,,,0.00,meteohub,2013-01-11 11:02:00,
2013-01-11 05:04:00,46.9,42.6,-100.00,South,190,7.0,16.0,85,0.00,,,0.00,meteohub,2013-01-11 11:04:00,
2013-01-11 05:05:00,46.9,42.6,-100.00,SSW,194,7.0,16.0,85,0.00,,,0.00,meteohub,2013-01-11 11:05:00,
2013-01-11 05:07:00,47.1,42.8,-100.00,SSW,193,12.0,16.0,85,0.00,,,0.00,meteohub,2013-01-11 11:07:00,
2013-01-11 05:10:00,47.3,42.8,-100.00,South,188,4.0,16.0,84,0.00,,,0.00,meteohub,2013-01-11 11:10:00,
2013-01-11 05:13:00,47.3,42.8,-100.00,SSW,194,9.0,15.0,84,0.00,,,0.00,meteohub,2013-01-11 11:13:00,
2013-01-11 05:15:00,47.3,42.8,-100.00,South,188,10.0,15.0,84,0.00,,,0.00,meteohub,2013-01-11 11:15:00,
2013-01-11 05:16:00,47.3,42.8,-100.00,South,185,3.0,17.0,84,0.00,,,0.00,meteohub,2013-01-11 11:16:00,
2013-01-11 05:18:00,47.5,42.8,-100.00,South,178,6.0,17.0,84,0.00,,,0.00,meteohub,2013-01-11 11:18:00,
2013-01-11 05:20:00,47.5,42.8,-100.00,SSW,192,7.0,17.0,84,0.00,,,0.00,meteohub,2013-01-11 11:20:00,
2013-01-11 05:21:00,47.5,42.8,-100.00,SSW,192,9.0,17.0,84,0.00,,,0.00,meteohub,2013-01-11 11:21:00,
2013-01-11 05:23:00,47.5,42.8,-100.00,SSW,196,14.0,17.0,84,0.00,,,0.00,meteohub,2013-01-11 11:23:00,
2013-01-11 05:25:00,47.5,42.8,-100.00,SSW,194,7.0,17.0,84,0.00,,,0.00,meteohub,2013-01-11 11:25:00,
2013-01-11 05:26:00,47.7,43.0,-100.00,South,191,11.0,17.0,84,0.00,,,0.00,meteohub,2013-01-11 11:26:00,
2013-01-11 05:28:00,47.7,43.0,-100.00,SSW,195,8.0,17.0,84,0.00,,,0.00,meteohub,2013-01-11 11:28:00,
2013-01-11 05:30:00,47.7,43.0,-100.00,South,186,7.0,17.0,84,0.00,,,0.00,meteohub,2013-01-11 11:30:00,
2013-01-11 05:31:00,47.7,43.0,-100.00,South,187,6.0,17.0,84,0.00,,,0.00,meteohub,2013-01-11 11:31:00,
2013-01-11 05:32:00,47.7,42.8,-100.00,SSW,205,11.0,17.0,83,0.00,,,0.00,meteohub,2013-01-11 11:32:00,
2013-01-11 05:33:00,47.7,42.8,-100.00,SSW,209,5.0,17.0,83,0.00,,,0.00,meteohub,2013-01-11 11:33:00,
2013-01-11 05:36:00,47.7,42.8,-100.00,SSW,196,13.0,17.0,83,0.00,,,0.00,meteohub,2013-01-11 11:36:00,
2013-01-11 05:37:00,47.7,42.8,-100.00,SSW,198,10.0,18.0,83,0.00,,,0.00,meteohub,2013-01-11 11:37:00,
2013-01-11 05:38:00,47.7,42.8,-100.00,South,188,6.0,18.0,83,0.00,,,0.00,meteohub,2013-01-11 11:38:00,
2013-01-11 05:41:00,47.7,42.8,-100.00,SSW,197,12.0,18.0,83,0.00,,,0.00,meteohub,2013-01-11 11:41:00,
2013-01-11 05:42:00,47.7,42.8,-100.00,South,190,12.0,18.0,83,0.00,,,0.00,meteohub,2013-01-11 11:42:00,
2013-01-11 05:43:00,47.7,42.8,-100.00,SSW,192,7.0,18.0,83,0.00,,,0.00,meteohub,2013-01-11 11:43:00,
2013-01-11 05:46:00,47.7,42.8,-100.00,South,190,10.0,18.0,83,0.00,,,0.00,meteohub,2013-01-11 11:46:00,
2013-01-11 05:47:00,47.7,42.8,-100.00,SSW,194,12.0,18.0,83,0.00,,,0.00,meteohub,2013-01-11 11:47:00,
2013-01-11 05:48:00,47.7,42.8,-100.00,SSW,200,14.0,18.0,83,0.00,,,0.00,meteohub,2013-01-11 11:48:00,
2013-01-11 05:51:00,47.7,42.8,-100.00,SSW,198,9.0,17.0,83,0.00,,,0.00,meteohub,2013-01-11 11:51:00,
2013-01-11 05:52:00,47.7,42.8,-100.00,South,191,9.0,17.0,83,0.00,,,0.00,meteohub,2013-01-11 11:52:00,
2013-01-11 05:54:00,47.7,42.8,-100.00,SSW,207,6.0,17.0,83,0.00,,,0.00,meteohub,2013-01-11 11:54:00,
2013-01-11 05:57:00,47.7,42.8,-100.00,SSW,195,12.0,17.0,83,0.00,,,0.00,meteohub,2013-01-11 11:57:00,
2013-01-11 05:59:00,47.5,42.6,-100.00,SSW,196,9.0,17.0,83,0.00,,,0.00,meteohub,2013-01-11 11:59:00,
2013-01-11 06:02:00,47.5,42.6,-100.00,South,188,7.0,17.0,83,0.00,,,0.00,meteohub,2013-01-11 12:02:00,
2013-01-11 06:04:00,47.5,42.6,-100.00,South,174,11.0,17.0,83,0.00,,,0.00,meteohub,2013-01-11 12:04:00,
2013-01-11 06:07:00,47.3,42.4,-100.00,South,186,4.0,15.0,83,0.00,,,0.00,meteohub,2013-01-11 12:07:00,
2013-01-11 06:08:00,47.3,42.4,-100.00,South,184,6.0,15.0,83,0.00,,,0.00,meteohub,2013-01-11 12:08:00,
2013-01-11 06:09:00,47.3,42.4,-100.00,South,184,7.0,15.0,83,0.00,,,0.00,meteohub,2013-01-11 12:09:00,
2013-01-11 06:10:00,47.3,42.4,-100.00,South,187,7.0,15.0,83,0.00,,,0.00,meteohub,2013-01-11 12:10:00,
2013-01-11 06:12:00,47.3,42.4,-100.00,South,173,6.0,15.0,83,0.00,,,0.00,meteohub,2013-01-11 12:12:00,
2013-01-11 06:14:00,47.3,42.4,-100.00,SSW,192,12.0,15.0,83,0.00,,,0.00,meteohub,2013-01-11 12:14:00,
2013-01-11 06:15:00,47.3,42.4,-100.00,South,177,7.0,15.0,83,0.00,,,0.00,meteohub,2013-01-11 12:15:00,
2013-01-11 06:17:00,47.3,42.8,-100.00,South,186,10.0,16.0,84,0.00,,,0.00,meteohub,2013-01-11 12:17:00,
2013-01-11 06:18:00,47.3,42.8,-100.00,SSW,195,4.0,16.0,84,0.00,,,0.00,meteohub,2013-01-11 12:18:00,
2013-01-11 06:19:00,47.3,42.8,-100.00,South,185,5.0,16.0,84,0.00,,,0.00,meteohub,2013-01-11 12:19:00,
2013-01-11 06:21:00,47.3,42.8,-100.00,South,190,11.0,16.0,84,0.00,,,0.00,meteohub,2013-01-11 12:21:00,
2013-01-11 06:22:00,47.3,42.4,-100.00,South,187,11.0,16.0,83,0.00,,,0.00,meteohub,2013-01-11 12:22:00,
2013-01-11 06:23:00,47.3,42.8,-100.00,South,186,6.0,16.0,84,0.00,,,0.00,meteohub,2013-01-11 12:23:00,
2013-01-11 06:24:00,47.3,42.4,-100.00,South,184,9.0,16.0,83,0.00,,,0.00,meteohub,2013-01-11 12:24:00,
2013-01-11 06:26:00,47.3,42.4,-100.00,SSW,194,11.0,16.0,83,0.00,,,0.00,meteohub,2013-01-11 12:26:00,
2013-01-11 06:28:00,47.3,42.4,-100.00,South,190,10.0,16.0,83,0.00,,,0.00,meteohub,2013-01-11 12:28:00,
2013-01-11 06:30:00,47.3,42.4,-100.00,SSW,196,6.0,15.0,83,0.00,,,0.00,meteohub,2013-01-11 12:30:00,
2013-01-11 06:31:00,47.3,42.4,-100.00,South,186,7.0,15.0,83,0.00,,,0.00,meteohub,2013-01-11 12:31:00,
2013-01-11 06:33:00,47.3,42.4,-100.00,South,186,4.0,15.0,83,0.00,,,0.00,meteohub,2013-01-11 12:33:00,
2013-01-11 06:34:00,47.3,42.4,-100.00,South,186,7.0,15.0,83,0.00,,,0.00,meteohub,2013-01-11 12:34:00,
2013-01-11 06:35:00,47.3,42.4,-100.00,South,185,4.0,15.0,83,0.00,,,0.00,meteohub,2013-01-11 12:35:00,
2013-01-11 06:36:00,47.5,42.6,-100.00,South,185,6.0,15.0,83,0.00,,,0.00,meteohub,2013-01-11 12:36:00,
2013-01-11 06:38:00,47.3,42.4,-100.00,South,188,3.0,15.0,83,0.00,,,0.00,meteohub,2013-01-11 12:38:00,
2013-01-11 06:40:00,47.3,42.4,-100.00,SSW,192,3.0,15.0,83,0.00,,,0.00,meteohub,2013-01-11 12:40:00,
2013-01-11 06:41:00,47.3,42.4,-100.00,SSW,192,6.0,15.0,83,0.00,,,0.00,meteohub,2013-01-11 12:41:00,
2013-01-11 06:43:00,47.3,42.4,-100.00,SSW,192,9.0,15.0,83,0.00,,,0.00,meteohub,2013-01-11 12:43:00,
2013-01-11 06:45:00,47.5,42.6,-100.00,SSW,192,9.0,15.0,83,0.00,,,0.00,meteohub,2013-01-11 12:45:00,
2013-01-11 06:46:00,47.5,42.6,-100.00,South,187,7.0,14.0,83,0.00,,,0.00,meteohub,2013-01-11 12:46:00,
2013-01-11 06:47:00,47.5,42.6,-100.00,South,188,5.0,14.0,83,0.00,,,0.00,meteohub,2013-01-11 12:47:00,
2013-01-11 06:48:00,47.5,42.6,-100.00,South,188,9.0,14.0,83,0.00,,,0.00,meteohub,2013-01-11 12:48:00,
2013-01-11 06:50:00,47.7,42.8,-100.00,SSW,192,8.0,14.0,83,0.00,,,0.00,meteohub,2013-01-11 12:50:00,
2013-01-11 06:52:00,47.7,42.8,-100.00,SSW,198,10.0,14.0,83,0.00,,,0.00,meteohub,2013-01-11 12:52:00,
2013-01-11 06:53:00,47.7,42.4,-100.00,SSW,194,7.0,14.0,82,0.00,,,0.00,meteohub,2013-01-11 12:53:00,
2013-01-11 06:55:00,47.7,42.4,-100.00,SSW,194,11.0,14.0,82,0.00,,,0.00,meteohub,2013-01-11 12:55:00,
2013-01-11 06:57:00,47.7,42.4,-100.00,South,188,7.0,14.0,82,0.00,,,0.00,meteohub,2013-01-11 12:57:00,
2013-01-11 06:58:00,47.7,42.4,-100.00,South,188,6.0,14.0,82,0.00,,,0.00,meteohub,2013-01-11 12:58:00,
2013-01-11 07:01:00,47.5,42.3,-100.00,SSW,201,11.0,13.0,82,0.00,,,0.00,meteohub,2013-01-11 13:01:00,
2013-01-11 07:02:00,47.5,42.3,-100.00,SSW,198,9.0,13.0,82,0.00,,,0.00,meteohub,2013-01-11 13:02:00,
2013-01-11 07:03:00,47.5,42.3,-100.00,SSW,197,5.0,13.0,82,0.00,,,0.00,meteohub,2013-01-11 13:03:00,
2013-01-11 07:06:00,47.5,42.3,-100.00,SSW,192,5.0,13.0,82,0.00,,,0.00,meteohub,2013-01-11 13:06:00,
2013-01-11 07:07:00,47.5,42.3,-100.00,South,190,5.0,13.0,82,0.00,,,0.00,meteohub,2013-01-11 13:07:00,
2013-01-11 07:08:00,47.3,42.1,-100.00,South,191,9.0,13.0,82,0.00,,,0.00,meteohub,2013-01-11 13:08:00,
2013-01-11 07:11:00,47.3,42.4,-100.00,SSW,194,6.0,13.0,83,0.00,,,0.00,meteohub,2013-01-11 13:11:00,
2013-01-11 07:13:00,47.3,42.4,-100.00,SSW,193,7.0,13.0,83,0.00,,,0.00,meteohub,2013-01-11 13:13:00,
2013-01-11 07:14:00,47.3,42.4,-100.00,SSW,194,4.0,13.0,83,0.00,,,0.00,meteohub,2013-01-11 13:14:00,
2013-01-11 07:16:00,47.3,42.4,-100.00,SSW,194,6.0,13.0,83,0.00,,,0.00,meteohub,2013-01-11 13:16:00,
2013-01-11 07:18:00,47.3,42.4,-100.00,SSW,198,5.0,13.0,83,0.00,,,0.00,meteohub,2013-01-11 13:18:00,
2013-01-11 07:19:00,47.3,42.4,-100.00,SSW,205,10.0,13.0,83,0.00,,,0.00,meteohub,2013-01-11 13:19:00,
2013-01-11 07:21:00,47.3,42.4,-100.00,SSW,196,10.0,12.0,83,0.00,,,0.00,meteohub,2013-01-11 13:21:00,
2013-01-11 07:23:00,47.1,42.3,-100.00,SSW,196,5.0,12.0,83,0.00,,,0.00,meteohub,2013-01-11 13:23:00,
2013-01-11 07:24:00,47.1,42.3,-100.00,SSW,196,3.0,12.0,83,0.00,,,0.00,meteohub,2013-01-11 13:24:00,
2013-01-11 07:27:00,47.1,42.3,-100.00,SSW,198,5.0,12.0,83,0.00,,,0.00,meteohub,2013-01-11 13:27:00,
2013-01-11 07:28:00,47.1,42.3,-100.00,SSW,199,5.0,12.0,83,0.00,,,0.00,meteohub,2013-01-11 13:28:00,
2013-01-11 07:29:00,47.1,42.3,-100.00,SSW,199,7.0,12.0,83,0.00,,,0.00,meteohub,2013-01-11 13:29:00,
2013-01-11 07:32:00,47.1,42.3,-100.00,SSW,198,5.0,12.0,83,0.00,,,0.00,meteohub,2013-01-11 13:32:00,
2013-01-11 07:34:00,46.9,42.1,-100.00,SSW,198,6.0,12.0,83,0.00,,,0.00,meteohub,2013-01-11 13:34:00,
2013-01-11 07:37:00,46.9,42.1,-100.00,SSW,202,9.0,12.0,83,0.00,,,0.00,meteohub,2013-01-11 13:37:00,
2013-01-11 07:39:00,46.9,42.1,-100.00,SSW,196,5.0,12.0,83,0.00,,,0.00,meteohub,2013-01-11 13:39:00,
2013-01-11 07:40:00,46.9,42.1,-100.00,SSW,193,6.0,12.0,83,0.00,,,0.00,meteohub,2013-01-11 13:40:00,
2013-01-11 07:42:00,46.9,42.1,-100.00,South,190,7.0,12.0,83,0.00,,,0.00,meteohub,2013-01-11 13:42:00,
2013-01-11 07:44:00,46.9,42.1,-100.00,SSW,195,7.0,12.0,83,0.00,,,0.00,meteohub,2013-01-11 13:44:00,
2013-01-11 07:45:00,46.9,42.1,-100.00,SSW,196,7.0,12.0,83,0.00,,,0.00,meteohub,2013-01-11 13:45:00,
2013-01-11 07:47:00,46.9,42.1,-100.00,SSW,200,8.0,12.0,83,0.00,,,0.00,meteohub,2013-01-11 13:47:00,
2013-01-11 07:49:00,47.1,42.6,-100.00,SSW,194,6.0,12.0,84,0.00,,,0.00,meteohub,2013-01-11 13:49:00,
2013-01-11 07:50:00,47.1,42.6,-100.00,SSW,194,7.0,12.0,84,0.00,,,0.00,meteohub,2013-01-11 13:50:00,
2013-01-11 07:53:00,47.1,42.6,-100.00,South,191,9.0,13.0,84,0.00,,,0.00,meteohub,2013-01-11 13:53:00,
2013-01-11 07:55:00,47.1,42.6,-100.00,SSW,192,9.0,13.0,84,0.00,,,0.00,meteohub,2013-01-11 13:55:00,
2013-01-11 07:59:00,47.3,42.8,-100.00,SSW,196,10.0,14.0,84,0.00,,,0.00,meteohub,2013-01-11 13:59:00,
2013-01-11 08:00:00,47.3,42.8,-100.00,SSW,192,6.0,14.0,84,0.00,,,0.00,meteohub,2013-01-11 14:00:00,
2013-01-11 08:04:00,47.5,42.8,-100.00,South,190,9.0,14.0,84,0.00,,,0.00,meteohub,2013-01-11 14:04:00,
2013-01-11 08:05:00,47.5,42.8,-100.00,SSW,194,8.0,14.0,84,0.00,,,0.00,meteohub,2013-01-11 14:05:00,
2013-01-11 08:06:00,47.5,42.8,-100.00,South,190,9.0,15.0,84,0.00,,,0.00,meteohub,2013-01-11 14:06:00,
2013-01-11 08:09:00,47.7,43.0,-100.00,South,189,9.0,15.0,84,0.00,,,0.00,meteohub,2013-01-11 14:09:00,
2013-01-11 08:10:00,47.7,43.0,-100.00,SSW,196,8.0,15.0,84,0.00,,,0.00,meteohub,2013-01-11 14:10:00,
2013-01-11 08:11:00,47.7,43.0,-100.00,SSW,193,11.0,15.0,84,0.00,,,0.00,meteohub,2013-01-11 14:11:00,
2013-01-11 08:14:00,47.8,43.2,-100.00,SSW,196,5.0,15.0,84,0.00,,,0.00,meteohub,2013-01-11 14:14:00,
2013-01-11 08:15:00,47.8,43.2,-100.00,South,190,8.0,15.0,84,0.00,,,0.00,meteohub,2013-01-11 14:15:00,
2013-01-11 08:16:00,47.8,43.2,-100.00,South,188,5.0,15.0,84,0.00,,,0.00,meteohub,2013-01-11 14:16:00,
2013-01-11 08:17:00,47.8,43.2,-100.00,South,188,5.0,15.0,84,0.00,,,0.00,meteohub,2013-01-11 14:17:00,
2013-01-11 08:19:00,47.8,43.0,-100.00,SSW,196,5.0,15.0,83,0.00,,,0.00,meteohub,2013-01-11 14:19:00,
2013-01-11 08:21:00,47.8,43.0,-100.00,SSW,192,7.0,13.0,83,0.00,,,0.00,meteohub,2013-01-11 14:21:00,
2013-01-11 08:22:00,47.8,43.0,-100.00,SSW,194,6.0,13.0,83,0.00,,,0.00,meteohub,2013-01-11 14:22:00,
2013-01-11 08:24:00,48.0,43.2,-100.00,South,190,5.0,13.0,83,0.00,,,0.00,meteohub,2013-01-11 14:24:00,
2013-01-11 08:26:00,48.0,43.2,-100.00,SSW,193,7.0,13.0,83,0.00,,,0.00,meteohub,2013-01-11 14:26:00,
2013-01-11 08:27:00,48.0,43.2,-100.00,SSW,193,7.0,13.0,83,0.00,,,0.00,meteohub,2013-01-11 14:27:00,
2013-01-11 08:30:00,48.0,43.2,-100.00,South,187,7.0,13.0,83,0.00,,,0.00,meteohub,2013-01-11 14:30:00,
2013-01-11 08:31:00,48.0,43.2,-100.00,SSW,198,5.0,13.0,83,0.00,,,0.00,meteohub,2013-01-11 14:31:00,
2013-01-11 08:32:00,48.0,43.2,-100.00,SSW,195,6.0,13.0,83,0.00,,,0.00,meteohub,2013-01-11 14:32:00,
2013-01-11 08:33:00,48.2,43.3,-100.00,SSW,192,6.0,13.0,83,0.00,,,0.00,meteohub,2013-01-11 14:33:00,
2013-01-11 08:35:00,48.2,43.3,-100.00,South,191,5.0,13.0,83,0.00,,,0.00,meteohub,2013-01-11 14:35:00,
2013-01-11 08:36:00,48.2,43.3,-100.00,South,191,3.0,13.0,83,0.00,,,0.00,meteohub,2013-01-11 14:36:00,
2013-01-11 08:37:00,48.2,43.3,-100.00,South,191,3.0,13.0,83,0.00,,,0.00,meteohub,2013-01-11 14:37:00,
2013-01-11 08:38:00,48.2,43.3,-100.00,South,190,7.0,13.0,83,0.00,,,0.00,meteohub,2013-01-11 14:38:00,
2013-01-11 08:40:00,48.4,43.5,-100.00,South,187,5.0,13.0,83,0.00,,,0.00,meteohub,2013-01-11 14:40:00,
2013-01-11 08:41:00,48.4,43.5,-100.00,South,188,7.0,13.0,83,0.00,,,0.00,meteohub,2013-01-11 14:41:00,
2013-01-11 08:42:00,48.4,43.5,-100.00,South,188,5.0,13.0,83,0.00,,,0.00,meteohub,2013-01-11 14:42:00,
2013-01-11 08:43:00,48.4,43.7,-100.00,South,181,10.0,13.0,84,0.00,,,0.00,meteohub,2013-01-11 14:43:00,
2013-01-11 08:46:00,48.6,43.9,-100.00,South,178,7.0,11.0,84,0.00,,,0.00,meteohub,2013-01-11 14:46:00,
2013-01-11 08:47:00,48.6,43.7,-100.00,South,178,5.0,11.0,83,0.00,,,0.00,meteohub,2013-01-11 14:47:00,
2013-01-11 08:49:00,48.7,43.9,-100.00,South,178,7.0,11.0,83,0.00,,,0.00,meteohub,2013-01-11 14:49:00,
2013-01-11 08:51:00,48.7,43.9,-100.00,South,178,4.0,11.0,83,0.00,,,0.00,meteohub,2013-01-11 14:51:00,
2013-01-11 08:52:00,48.9,44.1,-100.00,South,178,4.0,11.0,83,0.00,,,0.00,meteohub,2013-01-11 14:52:00,
2013-01-11 08:54:00,48.9,44.1,-100.00,South,183,5.0,11.0,83,0.00,,,0.00,meteohub,2013-01-11 14:54:00,
2013-01-11 08:56:00,48.9,44.1,-100.00,South,182,6.0,11.0,83,0.00,,,0.00,meteohub,2013-01-11 14:56:00,
2013-01-11 08:57:00,48.9,44.1,-100.00,South,182,4.0,11.0,83,0.00,,,0.00,meteohub,2013-01-11 14:57:00,
2013-01-11 09:00:00,49.1,44.2,-100.00,South,180,4.0,11.0,83,0.00,,,0.00,meteohub,2013-01-11 15:00:00,
2013-01-11 09:01:00,49.1,44.2,-100.00,South,178,6.0,11.0,83,0.00,,,0.00,meteohub,2013-01-11 15:01:00,
2013-01-11 09:02:00,49.1,44.2,-100.00,South,178,3.0,11.0,83,0.00,,,0.00,meteohub,2013-01-11 15:02:00,
2013-01-11 09:03:00,49.1,44.2,-100.00,South,178,2.0,11.0,83,0.00,,,0.00,meteohub,2013-01-11 15:03:00,
2013-01-11 09:05:00,49.3,44.4,-100.00,South,182,3.0,11.0,83,0.00,,,0.00,meteohub,2013-01-11 15:05:00,
2013-01-11 09:06:00,49.3,44.4,-100.00,South,182,3.0,11.0,83,0.00,,,0.00,meteohub,2013-01-11 15:06:00,
2013-01-11 09:07:00,49.5,44.6,-100.00,South,188,5.0,11.0,83,0.00,,,0.00,meteohub,2013-01-11 15:07:00,
2013-01-11 09:08:00,49.5,44.6,-100.00,South,187,4.0,11.0,83,0.00,,,0.00,meteohub,2013-01-11 15:08:00,
2013-01-11 09:11:00,49.5,44.6,-100.00,South,188,7.0,13.0,83,0.00,,,0.00,meteohub,2013-01-11 15:11:00,
2013-01-11 09:12:00,49.6,44.8,-100.00,SSW,200,8.0,13.0,83,0.00,,,0.00,meteohub,2013-01-11 15:12:00,
2013-01-11 09:14:00,49.8,44.8,-100.00,SSW,192,6.0,13.0,83,0.00,,,0.00,meteohub,2013-01-11 15:14:00,
2013-01-11 09:16:00,50.2,45.1,-100.00,SSW,192,12.0,13.0,83,0.00,,,0.00,meteohub,2013-01-11 15:16:00,
2013-01-11 09:17:00,50.2,45.1,-100.00,SSW,193,10.0,13.0,83,0.00,,,0.00,meteohub,2013-01-11 15:17:00,
2013-01-11 09:18:00,50.2,45.0,-100.00,SSW,201,9.0,13.0,82,0.00,,,0.00,meteohub,2013-01-11 15:18:00,
2013-01-11 09:19:00,50.2,45.0,-100.00,South,186,6.0,13.0,82,0.00,,,0.00,meteohub,2013-01-11 15:19:00,
2013-01-11 09:21:00,50.4,45.1,-100.00,SSW,194,7.0,15.0,82,0.00,,,0.00,meteohub,2013-01-11 15:21:00,
2013-01-11 09:22:00,50.4,45.1,-100.00,SSW,207,11.0,15.0,82,0.00,,,0.00,meteohub,2013-01-11 15:22:00,
2013-01-11 09:23:00,50.4,45.1,-100.00,SSW,192,10.0,15.0,82,0.00,,,0.00,meteohub,2013-01-11 15:23:00,
2013-01-11 09:24:00,50.5,45.3,-100.00,SSW,194,13.0,15.0,82,0.00,,,0.00,meteohub,2013-01-11 15:24:00,
2013-01-11 09:27:00,50.7,45.5,-100.00,SSW,200,9.0,15.0,82,0.00,,,0.00,meteohub,2013-01-11 15:27:00,
2013-01-11 09:28:00,51.1,45.9,-100.00,SSW,193,11.0,15.0,82,0.00,,,0.00,meteohub,2013-01-11 15:28:00,
2013-01-11 09:29:00,51.1,45.9,-100.00,SSW,192,10.0,15.0,82,0.00,,,0.00,meteohub,2013-01-11 15:29:00,
2013-01-11 09:32:00,51.3,45.7,-100.00,SSW,196,11.0,18.0,81,0.00,,,0.00,meteohub,2013-01-11 15:32:00,
2013-01-11 09:33:00,51.3,45.7,-100.00,South,189,12.0,18.0,81,0.00,,,0.00,meteohub,2013-01-11 15:33:00,
2013-01-11 09:35:00,51.4,45.9,-100.00,SSW,202,5.0,18.0,81,0.00,,,0.00,meteohub,2013-01-11 15:35:00,
2013-01-11 09:37:00,51.6,46.0,-100.00,SSW,198,7.0,18.0,81,0.00,,,0.00,meteohub,2013-01-11 15:37:00,
2013-01-11 09:39:00,51.6,46.0,-100.00,South,183,5.0,18.0,81,0.00,,,0.00,meteohub,2013-01-11 15:39:00,
2013-01-11 09:40:00,51.6,46.0,-100.00,SSW,192,11.0,18.0,81,0.00,,,0.00,meteohub,2013-01-11 15:40:00,
2013-01-11 09:42:00,51.6,46.0,-100.00,SSW,194,5.0,18.0,81,0.00,,,0.00,meteohub,2013-01-11 15:42:00,
2013-01-11 09:43:00,51.6,46.0,-100.00,SSW,196,11.0,18.0,81,0.00,,,0.00,meteohub,2013-01-11 15:43:00,
2013-01-11 09:44:00,52.0,46.4,-100.00,SSW,194,9.0,18.0,81,0.00,,,0.00,meteohub,2013-01-11 15:44:00,
2013-01-11 09:46:00,52.0,46.4,-100.00,SSW,196,9.0,16.0,81,0.00,,,0.00,meteohub,2013-01-11 15:46:00,
2013-01-11 09:47:00,52.2,46.6,-100.00,SSW,203,9.0,16.0,81,0.00,,,0.00,meteohub,2013-01-11 15:47:00,
2013-01-11 09:48:00,52.3,46.8,-100.00,South,183,5.0,16.0,81,0.00,,,0.00,meteohub,2013-01-11 15:48:00,
2013-01-11 09:50:00,52.5,46.9,-100.00,SSW,199,8.0,16.0,81,0.00,,,0.00,meteohub,2013-01-11 15:50:00,
2013-01-11 09:51:00,52.9,46.9,-100.00,South,181,6.0,16.0,80,0.00,,,0.00,meteohub,2013-01-11 15:51:00,
2013-01-11 09:52:00,52.9,46.9,-100.00,SSW,194,9.0,16.0,80,0.00,,,0.00,meteohub,2013-01-11 15:52:00,
2013-01-11 09:54:00,53.2,46.9,-100.00,SSW,192,10.0,16.0,79,0.00,,,0.00,meteohub,2013-01-11 15:54:00,
2013-01-11 09:55:00,53.4,47.1,-100.00,SSW,194,10.0,16.0,79,0.00,,,0.00,meteohub,2013-01-11 15:55:00,
2013-01-11 09:56:00,53.6,47.3,-100.00,South,190,9.0,16.0,79,0.00,,,0.00,meteohub,2013-01-11 15:56:00,
2013-01-11 09:57:00,54.0,46.6,-100.00,SSW,196,11.0,16.0,76,0.00,,,0.00,meteohub,2013-01-11 15:57:00,
2013-01-11 09:59:00,54.3,47.7,-100.00,South,190,11.0,16.0,78,0.00,,,0.00,meteohub,2013-01-11 15:59:00,
2013-01-11 10:00:00,54.7,48.0,-100.00,South,186,6.0,16.0,78,0.00,,,0.00,meteohub,2013-01-11 16:00:00,
2013-01-11 10:01:00,54.9,47.8,-100.00,South,184,6.0,17.0,77,0.00,,,0.00,meteohub,2013-01-11 16:01:00,
2013-01-11 10:02:00,55.0,48.0,-100.00,SSW,202,11.0,17.0,77,0.00,,,0.00,meteohub,2013-01-11 16:02:00,
2013-01-11 10:04:00,55.0,47.7,-100.00,SSW,194,16.0,17.0,76,0.00,,,0.00,meteohub,2013-01-11 16:04:00,
2013-01-11 10:05:00,55.2,47.8,-100.00,SSW,197,11.0,17.0,76,0.00,,,0.00,meteohub,2013-01-11 16:05:00,
2013-01-11 10:06:00,55.4,47.7,-100.00,SSW,205,15.0,22.0,75,0.00,,,0.00,meteohub,2013-01-11 16:06:00,
2013-01-11 10:07:00,55.4,47.7,-100.00,SSW,198,15.0,22.0,75,0.00,,,0.00,meteohub,2013-01-11 16:07:00,
2013-01-11 10:09:00,55.6,47.5,-100.00,SSW,200,10.0,22.0,74,0.00,,,0.00,meteohub,2013-01-11 16:09:00,
2013-01-11 10:10:00,55.6,47.5,-100.00,SSW,196,12.0,22.0,74,0.00,,,0.00,meteohub,2013-01-11 16:10:00,
2013-01-11 10:12:00,55.6,47.5,-100.00,SSW,207,6.0,22.0,74,0.00,,,0.00,meteohub,2013-01-11 16:12:00,
2013-01-11 10:13:00,55.6,47.5,-100.00,SSW,211,10.0,22.0,74,0.00,,,0.00,meteohub,2013-01-11 16:13:00,
2013-01-11 10:14:00,55.6,47.8,-100.00,SSW,209,12.0,22.0,75,0.00,,,0.00,meteohub,2013-01-11 16:14:00,
2013-01-11 10:15:00,55.6,47.5,-100.00,SSW,211,11.0,22.0,74,0.00,,,0.00,meteohub,2013-01-11 16:15:00,
2013-01-11 10:17:00,55.6,47.8,-100.00,SSW,194,6.0,22.0,75,0.00,,,0.00,meteohub,2013-01-11 16:17:00,
2013-01-11 10:18:00,55.6,47.8,-100.00,SSW,199,7.0,22.0,75,0.00,,,0.00,meteohub,2013-01-11 16:18:00,
2013-01-11 10:19:00,55.6,47.8,-100.00,SW,216,7.0,22.0,75,0.00,,,0.00,meteohub,2013-01-11 16:19:00,
2013-01-11 10:20:00,55.6,47.8,-100.00,SSW,209,14.0,21.0,75,0.00,,,0.00,meteohub,2013-01-11 16:20:00,
2013-01-11 10:22:00,55.8,48.0,-100.00,SSW,211,7.0,21.0,75,0.00,,,0.00,meteohub,2013-01-11 16:22:00,
2013-01-11 10:23:00,55.9,48.2,-100.00,SSW,212,12.0,21.0,75,0.00,,,0.00,meteohub,2013-01-11 16:23:00,
2013-01-11 10:25:00,56.1,48.4,-100.00,SSW,213,7.0,21.0,75,0.00,,,0.00,meteohub,2013-01-11 16:25:00,
2013-01-11 10:27:00,56.7,48.4,-100.00,SSW,207,7.0,19.0,74,0.00,,,0.00,meteohub,2013-01-11 16:27:00,
2013-01-11 10:28:00,56.7,48.4,-100.00,SSW,192,6.0,19.0,74,0.00,,,0.00,meteohub,2013-01-11 16:28:00,
2013-01-11 10:30:00,57.0,48.7,-100.00,SW,218,13.0,19.0,74,0.00,,,0.00,meteohub,2013-01-11 16:30:00,
2013-01-11 10:32:00,57.4,48.7,-100.00,SSW,211,10.0,15.0,73,0.00,,,0.00,meteohub,2013-01-11 16:32:00,
2013-01-11 10:33:00,57.6,48.9,-100.00,SW,216,7.0,15.0,73,0.00,,,0.00,meteohub,2013-01-11 16:33:00,
2013-01-11 10:35:00,57.6,48.6,-100.00,SW,219,14.0,17.0,72,0.00,,,0.00,meteohub,2013-01-11 16:35:00,
2013-01-11 10:36:00,57.6,48.6,-100.00,SW,236,6.0,17.0,72,0.00,,,0.00,meteohub,2013-01-11 16:36:00,
2013-01-11 10:38:00,57.7,48.7,-100.00,SW,227,11.0,17.0,72,0.00,,,0.00,meteohub,2013-01-11 16:38:00,
2013-01-11 10:41:00,58.1,48.7,-100.00,SSW,213,13.0,17.0,71,0.00,,,0.00,meteohub,2013-01-11 16:41:00,
2013-01-11 10:42:00,58.1,48.7,-100.00,SW,232,10.0,17.0,71,0.00,,,0.00,meteohub,2013-01-11 16:42:00,
2013-01-11 10:43:00,58.3,48.9,-100.00,WSW,237,3.0,17.0,71,0.00,,,0.00,meteohub,2013-01-11 16:43:00,
2013-01-11 10:44:00,58.3,48.9,-100.00,SW,236,7.0,17.0,71,0.00,,,0.00,meteohub,2013-01-11 16:44:00,
2013-01-11 10:46:00,58.5,49.1,-100.00,SW,234,9.0,17.0,71,0.00,,,0.00,meteohub,2013-01-11 16:46:00,
2013-01-11 10:47:00,58.6,49.3,-100.00,SW,223,8.0,17.0,71,0.00,,,0.00,meteohub,2013-01-11 16:47:00,
2013-01-11 10:48:00,58.6,48.9,-100.00,SSW,197,12.0,17.0,70,0.00,,,0.00,meteohub,2013-01-11 16:48:00,
2013-01-11 10:49:00,58.6,49.3,-100.00,SSW,196,7.0,17.0,71,0.00,,,0.00,meteohub,2013-01-11 16:49:00,
2013-01-11 10:51:00,58.8,49.1,-100.00,SSW,199,9.0,15.0,70,0.00,,,0.00,meteohub,2013-01-11 16:51:00,
2013-01-11 10:52:00,59.0,49.3,-100.00,SSW,198,6.0,15.0,70,0.00,,,0.00,meteohub,2013-01-11 16:52:00,
2013-01-11 10:54:00,59.4,49.6,-100.00,SW,225,14.0,15.0,70,0.00,,,0.00,meteohub,2013-01-11 16:54:00,
2013-01-11 10:55:00,59.5,49.3,-100.00,SSW,204,13.0,15.0,69,0.00,,,0.00,meteohub,2013-01-11 16:55:00,
2013-01-11 10:56:00,59.5,48.9,-100.00,SSW,206,16.0,16.0,68,0.00,,,0.00,meteohub,2013-01-11 16:56:00,
2013-01-11 10:57:00,59.7,49.1,-100.00,SW,221,16.0,16.0,68,0.00,,,0.00,meteohub,2013-01-11 16:57:00,
2013-01-11 10:58:00,59.9,48.9,-100.00,SSW,207,12.0,15.0,67,0.00,,,0.00,meteohub,2013-01-11 16:58:00,
2013-01-11 11:00:00,60.3,49.3,-100.00,SW,215,8.0,15.0,67,0.00,,,0.00,meteohub,2013-01-11 17:00:00,
2013-01-11 11:01:00,60.4,49.8,-100.00,SW,215,7.0,20.0,68,0.00,,,0.00,meteohub,2013-01-11 17:01:00,
2013-01-11 11:02:00,60.4,49.8,-100.00,SW,227,9.0,20.0,68,0.00,,,0.00,meteohub,2013-01-11 17:02:00,
2013-01-11 11:04:00,61.0,50.0,-100.00,SSW,203,12.0,20.0,67,0.00,,,0.00,meteohub,2013-01-11 17:04:00,
2013-01-11 11:05:00,61.0,50.0,-100.00,SSW,212,16.0,20.0,67,0.00,,,0.00,meteohub,2013-01-11 17:05:00,
2013-01-11 11:06:00,61.2,49.6,-100.00,SSW,203,11.0,20.0,66,0.00,,,0.00,meteohub,2013-01-11 17:06:00,
2013-01-11 11:07:00,61.2,49.6,-100.00,South,190,9.0,20.0,66,0.00,,,0.00,meteohub,2013-01-11 17:07:00,
2013-01-11 11:09:00,61.3,49.8,-100.00,SSW,192,10.0,20.0,66,0.00,,,0.00,meteohub,2013-01-11 17:09:00,
2013-01-11 11:10:00,61.5,49.6,-100.00,South,185,12.0,19.0,65,0.00,,,0.00,meteohub,2013-01-11 17:10:00,
2013-01-11 11:11:00,61.5,50.0,-100.00,South,184,13.0,19.0,66,0.00,,,0.00,meteohub,2013-01-11 17:11:00,
2013-01-11 11:12:00,61.5,50.0,-100.00,South,171,14.0,19.0,66,0.00,,,0.00,meteohub,2013-01-11 17:12:00,
2013-01-11 11:14:00,61.9,50.0,-100.00,South,190,12.0,19.0,65,0.00,,,0.00,meteohub,2013-01-11 17:14:00,
2013-01-11 11:16:00,62.1,49.8,-100.00,SSW,203,16.0,19.0,64,0.00,,,0.00,meteohub,2013-01-11 17:16:00,
2013-01-11 11:17:00,62.1,49.8,-100.00,SW,214,13.0,19.0,64,0.00,,,0.00,meteohub,2013-01-11 17:17:00,
2013-01-11 11:19:00,62.1,49.8,-100.00,South,190,13.0,19.0,64,0.00,,,0.00,meteohub,2013-01-11 17:19:00,
2013-01-11 11:21:00,62.2,50.0,-100.00,SSW,201,15.0,21.0,64,0.00,,,0.00,meteohub,2013-01-11 17:21:00,
2013-01-11 11:22:00,62.4,50.0,-100.00,South,178,10.0,21.0,64,0.00,,,0.00,meteohub,2013-01-11 17:22:00,
2013-01-11 11:24:00,62.6,50.2,-100.00,SSW,201,12.0,21.0,64,0.00,,,0.00,meteohub,2013-01-11 17:24:00,
2013-01-11 11:26:00,62.8,50.0,-100.00,SSW,205,12.0,21.0,63,0.00,,,0.00,meteohub,2013-01-11 17:26:00,
2013-01-11 11:27:00,62.8,50.0,-100.00,South,172,16.0,21.0,63,0.00,,,0.00,meteohub,2013-01-11 17:27:00,
2013-01-11 11:29:00,63.1,49.8,-100.00,SSW,208,7.0,21.0,62,0.00,,,0.00,meteohub,2013-01-11 17:29:00,
2013-01-11 11:31:00,63.1,49.5,-100.00,SW,222,18.0,22.0,61,0.00,,,0.00,meteohub,2013-01-11 17:31:00,
2013-01-11 11:33:00,63.1,49.8,-100.00,SSW,206,25.0,25.0,62,0.00,,,0.00,meteohub,2013-01-11 17:33:00,
2013-01-11 11:35:00,63.1,49.8,-100.00,SSW,192,13.0,25.0,62,0.00,,,0.00,meteohub,2013-01-11 17:35:00,
2013-01-11 11:36:00,63.1,50.4,-100.00,SSW,207,13.0,25.0,63,0.00,,,0.00,meteohub,2013-01-11 17:36:00,
2013-01-11 11:37:00,63.1,49.8,-100.00,SSW,192,17.0,25.0,62,0.00,,,0.00,meteohub,2013-01-11 17:37:00,
2013-01-11 11:38:00,63.1,49.8,-100.00,SW,231,14.0,25.0,62,0.00,,,0.00,meteohub,2013-01-11 17:38:00,
2013-01-11 11:40:00,63.1,49.5,-100.00,SSW,196,15.0,25.0,61,0.00,,,0.00,meteohub,2013-01-11 17:40:00,
2013-01-11 11:42:00,63.3,49.6,-100.00,SSW,198,18.0,25.0,61,0.00,,,0.00,meteohub,2013-01-11 17:42:00,
2013-01-11 11:43:00,63.3,49.6,-100.00,SSW,197,10.0,25.0,61,0.00,,,0.00,meteohub,2013-01-11 17:43:00,
2013-01-11 11:45:00,63.5,49.8,-100.00,SW,216,18.0,25.0,61,0.00,,,0.00,meteohub,2013-01-11 17:45:00,
2013-01-11 11:47:00,63.7,49.5,-100.00,SW,218,14.0,25.0,60,0.00,,,0.00,meteohub,2013-01-11 17:47:00,
2013-01-11 11:48:00,63.9,49.3,-100.00,SSW,192,13.0,25.0,59,0.00,,,0.00,meteohub,2013-01-11 17:48:00,
2013-01-11 11:50:00,64.0,49.8,-100.00,SSW,207,12.0,23.0,60,0.00,,,0.00,meteohub,2013-01-11 17:50:00,
2013-01-11 11:52:00,64.0,49.8,-100.00,SSW,192,10.0,23.0,60,0.00,,,0.00,meteohub,2013-01-11 17:52:00,
2013-01-11 11:53:00,64.2,50.0,-100.00,SSW,200,17.0,23.0,60,0.00,,,0.00,meteohub,2013-01-11 17:53:00,
2013-01-11 11:56:00,64.6,50.0,-100.00,South,188,19.0,22.0,59,0.00,,,0.00,meteohub,2013-01-11 17:56:00,
2013-01-11 11:57:00,64.6,49.5,-100.00,South,186,9.0,22.0,58,0.00,,,0.00,meteohub,2013-01-11 17:57:00,
2013-01-11 11:58:00,64.8,50.2,-100.00,SSW,203,21.0,22.0,59,0.00,,,0.00,meteohub,2013-01-11 17:58:00,
2013-01-11 12:01:00,64.8,49.1,-100.00,SSW,201,20.0,22.0,57,0.00,,,0.00,meteohub,2013-01-11 18:01:00,
2013-01-11 12:02:00,64.9,49.3,-100.00,South,175,11.0,22.0,57,0.00,,,0.00,meteohub,2013-01-11 18:02:00,
2013-01-11 12:03:00,64.9,49.3,-100.00,SSW,213,22.0,22.0,57,0.00,,,0.00,meteohub,2013-01-11 18:03:00,
2013-01-11 12:04:00,64.9,49.3,-100.00,SSW,206,10.0,22.0,57,0.00,,,0.00,meteohub,2013-01-11 18:04:00,
2013-01-11 12:07:00,65.1,49.5,-100.00,South,186,15.0,26.0,57,0.00,,,0.00,meteohub,2013-01-11 18:07:00,
2013-01-11 12:09:00,65.3,50.2,-100.00,SW,214,13.0,26.0,58,0.00,,,0.00,meteohub,2013-01-11 18:09:00,
2013-01-11 12:12:00,65.8,50.2,-100.00,SSW,192,15.0,26.0,57,0.00,,,0.00,meteohub,2013-01-11 18:12:00,
2013-01-11 12:14:00,66.0,49.8,-100.00,South,190,20.0,26.0,56,0.00,,,0.00,meteohub,2013-01-11 18:14:00,
2013-01-11 12:17:00,66.4,49.3,-100.00,South,186,18.0,26.0,54,0.00,,,0.00,meteohub,2013-01-11 18:17:00,
2013-01-11 12:19:00,66.4,49.3,-100.00,South,190,13.0,26.0,54,0.00,,,0.00,meteohub,2013-01-11 18:19:00,
2013-01-11 12:22:00,66.4,48.7,-100.00,SSW,201,15.0,24.0,53,0.00,,,0.00,meteohub,2013-01-11 18:22:00,
2013-01-11 12:24:00,66.4,48.7,-100.00,SSW,205,22.0,24.0,53,0.00,,,0.00,meteohub,2013-01-11 18:24:00,
2013-01-11 12:27:00,66.6,47.3,-100.00,SSW,196,21.0,25.0,50,0.00,,,0.00,meteohub,2013-01-11 18:27:00,
2013-01-11 12:30:00,66.4,47.7,-100.00,SW,214,16.0,25.0,51,0.00,,,0.00,meteohub,2013-01-11 18:30:00,
2013-01-11 12:32:00,66.4,48.2,-100.00,SSW,209,14.0,26.0,52,0.00,,,0.00,meteohub,2013-01-11 18:32:00,
2013-01-11 12:35:00,66.4,48.7,-100.00,SSW,193,14.0,26.0,53,0.00,,,0.00,meteohub,2013-01-11 18:35:00,
2013-01-11 12:37:00,66.4,48.2,-100.00,South,191,11.0,26.0,52,0.00,,,0.00,meteohub,2013-01-11 18:37:00,
2013-01-11 12:40:00,66.4,47.7,-100.00,South,179,9.0,26.0,51,0.00,,,0.00,meteohub,2013-01-11 18:40:00,
2013-01-11 12:42:00,66.0,48.4,-100.00,SSW,193,11.0,26.0,53,0.00,,,0.00,meteohub,2013-01-11 18:42:00,
2013-01-11 12:43:00,66.0,48.4,-100.00,SSW,197,19.0,26.0,53,0.00,,,0.00,meteohub,2013-01-11 18:43:00,
2013-01-11 12:45:00,65.7,48.6,-100.00,SSW,192,9.0,26.0,54,0.00,,,0.00,meteohub,2013-01-11 18:45:00,
2013-01-11 12:47:00,65.7,48.6,-100.00,SSW,203,11.0,27.0,54,0.00,,,0.00,meteohub,2013-01-11 18:47:00,
2013-01-11 12:48:00,65.7,48.6,-100.00,SSW,200,18.0,27.0,54,0.00,,,0.00,meteohub,2013-01-11 18:48:00,
2013-01-11 12:50:00,65.8,48.7,-100.00,SSW,206,15.0,27.0,54,0.00,,,0.00,meteohub,2013-01-11 18:50:00,
2013-01-11 12:51:00,66.0,48.4,-100.00,SSW,206,11.0,27.0,53,0.00,,,0.00,meteohub,2013-01-11 18:51:00,
2013-01-11 12:53:00,66.0,48.9,-100.00,South,191,20.0,27.0,54,0.00,,,0.00,meteohub,2013-01-11 18:53:00,
2013-01-11 12:55:00,66.4,48.7,-100.00,SSW,209,18.0,26.0,53,0.00,,,0.00,meteohub,2013-01-11 18:55:00,
2013-01-11 12:56:00,66.4,48.7,-100.00,South,188,7.0,26.0,53,0.00,,,0.00,meteohub,2013-01-11 18:56:00,
2013-01-11 12:58:00,66.6,48.4,-100.00,SSW,206,23.0,26.0,52,0.00,,,0.00,meteohub,2013-01-11 18:58:00,
2013-01-11 12:59:00,66.6,47.8,-100.00,SSW,196,12.0,26.0,51,0.00,,,0.00,meteohub,2013-01-11 18:59:00,
2013-01-11 13:00:00,66.7,48.0,-100.00,SSW,211,28.0,28.0,51,0.00,,,0.00,meteohub,2013-01-11 19:00:00,
2013-01-11 13:01:00,66.7,48.0,-100.00,South,186,17.0,25.0,51,0.00,,,0.00,meteohub,2013-01-11 19:01:00,
2013-01-11 13:03:00,66.9,48.2,-100.00,SSW,205,19.0,25.0,51,0.00,,,0.00,meteohub,2013-01-11 19:03:00,
2013-01-11 13:04:00,66.9,48.7,-100.00,SSW,200,18.0,25.0,52,0.00,,,0.00,meteohub,2013-01-11 19:04:00,
2013-01-11 13:05:00,67.1,49.5,-100.00,South,182,19.0,29.0,53,0.00,,,0.00,meteohub,2013-01-11 19:05:00,
2013-01-11 13:07:00,67.1,49.8,-100.00,SSW,202,14.0,29.0,54,0.00,,,0.00,meteohub,2013-01-11 19:07:00,
2013-01-11 13:08:00,67.3,49.6,-100.00,SSE,155,10.0,29.0,53,0.00,,,0.00,meteohub,2013-01-11 19:08:00,
2013-01-11 13:09:00,67.5,49.3,-100.00,South,188,10.0,29.0,52,0.00,,,0.00,meteohub,2013-01-11 19:09:00,
2013-01-11 13:11:00,67.6,49.5,-100.00,South,189,17.0,29.0,52,0.00,,,0.00,meteohub,2013-01-11 19:11:00,
2013-01-11 13:12:00,67.6,49.5,-100.00,South,188,10.0,29.0,52,0.00,,,0.00,meteohub,2013-01-11 19:12:00,
2013-01-11 13:13:00,67.6,48.9,-100.00,South,179,22.0,29.0,51,0.00,,,0.00,meteohub,2013-01-11 19:13:00,
2013-01-11 13:14:00,67.6,48.9,-100.00,South,185,18.0,29.0,51,0.00,,,0.00,meteohub,2013-01-11 19:14:00,
2013-01-11 13:16:00,67.6,49.5,-100.00,South,187,19.0,29.0,52,0.00,,,0.00,meteohub,2013-01-11 19:16:00,
2013-01-11 13:17:00,67.6,49.5,-100.00,South,189,20.0,29.0,52,0.00,,,0.00,meteohub,2013-01-11 19:17:00,
2013-01-11 13:18:00,67.6,49.5,-100.00,SSW,194,9.0,29.0,52,0.00,,,0.00,meteohub,2013-01-11 19:18:00,
2013-01-11 13:20:00,67.6,49.5,-100.00,South,188,12.0,29.0,52,0.00,,,0.00,meteohub,2013-01-11 19:20:00,
2013-01-11 13:21:00,67.8,51.6,-100.00,SSW,195,16.0,25.0,56,0.00,,,0.00,meteohub,2013-01-11 19:21:00,
2013-01-11 13:22:00,67.8,51.6,-100.00,South,180,13.0,25.0,56,0.00,,,0.00,meteohub,2013-01-11 19:22:00,
2013-01-11 13:24:00,67.8,49.6,-100.00,South,181,14.0,25.0,52,0.00,,,0.00,meteohub,2013-01-11 19:24:00,
2013-01-11 13:25:00,67.8,49.6,-100.00,South,185,12.0,25.0,52,0.00,,,0.00,meteohub,2013-01-11 19:25:00,
2013-01-11 13:26:00,67.8,49.6,-100.00,SSW,192,19.0,26.0,52,0.00,,,0.00,meteohub,2013-01-11 19:26:00,
2013-01-11 13:27:00,67.8,49.6,-100.00,SSW,203,14.0,26.0,52,0.00,,,0.00,meteohub,2013-01-11 19:27:00,
2013-01-11 13:29:00,67.8,49.6,-100.00,South,178,10.0,26.0,52,0.00,,,0.00,meteohub,2013-01-11 19:29:00,
2013-01-11 13:30:00,67.8,49.6,-100.00,SSW,211,12.0,26.0,52,0.00,,,0.00,meteohub,2013-01-11 19:30:00,
2013-01-11 13:31:00,67.8,49.6,-100.00,South,174,16.0,27.0,52,0.00,,,0.00,meteohub,2013-01-11 19:31:00,
2013-01-11 13:32:00,67.8,49.6,-100.00,SSW,210,24.0,27.0,52,0.00,,,0.00,meteohub,2013-01-11 19:32:00,
2013-01-11 13:34:00,68.2,49.8,-100.00,SSW,193,16.0,27.0,52,0.00,,,0.00,meteohub,2013-01-11 19:34:00,
2013-01-11 13:35:00,68.2,49.8,-100.00,SSW,194,12.0,27.0,52,0.00,,,0.00,meteohub,2013-01-11 19:35:00,
2013-01-11 13:37:00,68.2,50.4,-100.00,SSW,199,12.0,27.0,53,0.00,,,0.00,meteohub,2013-01-11 19:37:00,
2013-01-11 13:40:00,68.4,50.5,-100.00,SSW,193,18.0,27.0,53,0.00,,,0.00,meteohub,2013-01-11 19:40:00,
2013-01-11 13:42:00,68.5,50.2,-100.00,South,188,16.0,26.0,52,0.00,,,0.00,meteohub,2013-01-11 19:42:00,
2013-01-11 13:45:00,68.5,50.7,-100.00,South,190,17.0,26.0,53,0.00,,,0.00,meteohub,2013-01-11 19:45:00,
2013-01-11 13:46:00,68.4,50.5,-100.00,South,189,16.0,26.0,53,0.00,,,0.00,meteohub,2013-01-11 19:46:00,
2013-01-11 13:47:00,68.4,50.5,-100.00,SSW,206,15.0,26.0,53,0.00,,,0.00,meteohub,2013-01-11 19:47:00,
2013-01-11 13:48:00,68.4,50.5,-100.00,South,188,17.0,26.0,53,0.00,,,0.00,meteohub,2013-01-11 19:48:00,
2013-01-11 13:51:00,67.8,50.5,-100.00,SSW,195,15.0,26.0,54,0.00,,,0.00,meteohub,2013-01-11 19:51:00,
2013-01-11 13:52:00,67.5,50.2,-100.00,SSW,202,19.0,26.0,54,0.00,,,0.00,meteohub,2013-01-11 19:52:00,
2013-01-11 13:53:00,67.5,50.2,-100.00,SSW,200,22.0,26.0,54,0.00,,,0.00,meteohub,2013-01-11 19:53:00,
2013-01-11 13:56:00,67.1,49.8,-100.00,SSW,213,15.0,24.0,54,0.00,,,0.00,meteohub,2013-01-11 19:56:00,
2013-01-11 13:58:00,67.1,49.8,-100.00,SSW,204,15.0,24.0,54,0.00,,,0.00,meteohub,2013-01-11 19:58:00,
2013-01-11 13:59:00,67.1,49.8,-100.00,SSW,194,15.0,24.0,54,0.00,,,0.00,meteohub,2013-01-11 19:59:00,
2013-01-11 14:01:00,67.3,50.0,-100.00,SSW,197,14.0,27.0,54,0.00,,,0.00,meteohub,2013-01-11 20:01:00,
2013-01-11 14:03:00,67.6,49.8,-100.00,South,175,14.0,27.0,53,0.00,,,0.00,meteohub,2013-01-11 20:03:00,
2013-01-11 14:04:00,67.8,50.0,-100.00,SSW,207,17.0,27.0,53,0.00,,,0.00,meteohub,2013-01-11 20:04:00,
2013-01-11 14:06:00,68.2,50.4,-100.00,SSW,213,17.0,27.0,53,0.00,,,0.00,meteohub,2013-01-11 20:06:00,
2013-01-11 14:08:00,68.4,50.0,-100.00,SSW,205,16.0,27.0,52,0.00,,,0.00,meteohub,2013-01-11 20:08:00,
2013-01-11 14:10:00,68.4,50.0,-100.00,SSW,192,15.0,27.0,52,0.00,,,0.00,meteohub,2013-01-11 20:10:00,
2013-01-11 14:11:00,68.4,50.0,-100.00,SW,216,12.0,27.0,52,0.00,,,0.00,meteohub,2013-01-11 20:11:00,
2013-01-11 14:13:00,68.5,49.6,-100.00,SW,216,18.0,27.0,51,0.00,,,0.00,meteohub,2013-01-11 20:13:00,
2013-01-11 14:15:00,68.5,50.2,-100.00,South,188,18.0,27.0,52,0.00,,,0.00,meteohub,2013-01-11 20:15:00,
2013-01-11 14:17:00,68.5,49.6,-100.00,South,184,10.0,24.0,51,0.00,,,0.00,meteohub,2013-01-11 20:17:00,
2013-01-11 14:18:00,68.5,49.6,-100.00,South,188,10.0,24.0,51,0.00,,,0.00,meteohub,2013-01-11 20:18:00,
2013-01-11 14:20:00,68.4,50.0,-100.00,South,191,10.0,24.0,52,0.00,,,0.00,meteohub,2013-01-11 20:20:00,
2013-01-11 14:22:00,68.4,50.0,-100.00,SSW,205,16.0,24.0,52,0.00,,,0.00,meteohub,2013-01-11 20:22:00,
2013-01-11 14:24:00,68.4,50.0,-100.00,South,191,13.0,24.0,52,0.00,,,0.00,meteohub,2013-01-11 20:24:00,
2013-01-11 14:25:00,68.4,50.0,-100.00,SSW,211,24.0,24.0,52,0.00,,,0.00,meteohub,2013-01-11 20:25:00,
2013-01-11 14:27:00,68.5,50.2,-100.00,SSW,204,18.0,24.0,52,0.00,,,0.00,meteohub,2013-01-11 20:27:00,
2013-01-11 14:29:00,68.5,50.2,-100.00,SSW,207,12.0,24.0,52,0.00,,,0.00,meteohub,2013-01-11 20:29:00,
2013-01-11 14:30:00,68.7,50.4,-100.00,South,177,7.0,30.0,52,0.00,,,0.00,meteohub,2013-01-11 20:30:00,
2013-01-11 14:32:00,69.1,50.2,-100.00,South,186,15.0,30.0,51,0.00,,,0.00,meteohub,2013-01-11 20:32:00,
2013-01-11 14:34:00,69.3,49.8,-100.00,SW,215,17.0,30.0,50,0.00,,,0.00,meteohub,2013-01-11 20:34:00,
2013-01-11 14:35:00,69.3,49.8,-100.00,SW,216,15.0,30.0,50,0.00,,,0.00,meteohub,2013-01-11 20:35:00,
2013-01-11 14:37:00,69.3,49.8,-100.00,SW,214,15.0,30.0,50,0.00,,,0.00,meteohub,2013-01-11 20:37:00,
2013-01-11 14:40:00,69.1,50.2,-100.00,SSW,200,13.0,30.0,51,0.00,,,0.00,meteohub,2013-01-11 20:40:00,
2013-01-11 14:41:00,68.9,50.0,-100.00,SSW,202,16.0,30.0,51,0.00,,,0.00,meteohub,2013-01-11 20:41:00,
2013-01-11 14:43:00,68.7,49.8,-100.00,SSW,213,14.0,30.0,51,0.00,,,0.00,meteohub,2013-01-11 20:43:00,
2013-01-11 14:45:00,68.5,50.2,-100.00,SSW,195,16.0,29.0,52,0.00,,,0.00,meteohub,2013-01-11 20:45:00,
2013-01-11 14:46:00,68.5,50.2,-100.00,SSW,196,14.0,29.0,52,0.00,,,0.00,meteohub,2013-01-11 20:46:00,
2013-01-11 14:48:00,68.5,50.2,-100.00,SSW,197,19.0,29.0,52,0.00,,,0.00,meteohub,2013-01-11 20:48:00,
2013-01-11 14:50:00,68.5,49.6,-100.00,SSW,202,12.0,26.0,51,0.00,,,0.00,meteohub,2013-01-11 20:50:00,
2013-01-11 14:51:00,68.5,49.6,-100.00,SSW,202,11.0,26.0,51,0.00,,,0.00,meteohub,2013-01-11 20:51:00,
2013-01-11 14:54:00,68.7,49.8,-100.00,SSW,192,12.0,26.0,51,0.00,,,0.00,meteohub,2013-01-11 20:54:00,
2013-01-11 14:56:00,68.7,49.3,-100.00,SSW,205,18.0,23.0,50,0.00,,,0.00,meteohub,2013-01-11 20:56:00,
2013-01-11 14:59:00,68.7,49.3,-100.00,SSW,204,12.0,23.0,50,0.00,,,0.00,meteohub,2013-01-11 20:59:00,
2013-01-11 15:01:00,68.7,49.3,-100.00,SSW,207,12.0,28.0,50,0.00,,,0.00,meteohub,2013-01-11 21:01:00,
2013-01-11 15:02:00,68.7,49.3,-100.00,South,184,10.0,28.0,50,0.00,,,0.00,meteohub,2013-01-11 21:02:00,
2013-01-11 15:04:00,68.9,49.5,-100.00,SSW,202,25.0,28.0,50,0.00,,,0.00,meteohub,2013-01-11 21:04:00,
2013-01-11 15:06:00,69.3,49.3,-100.00,SSW,192,11.0,28.0,49,0.00,,,0.00,meteohub,2013-01-11 21:06:00,
2013-01-11 15:07:00,69.3,49.3,-100.00,SSW,202,16.0,28.0,49,0.00,,,0.00,meteohub,2013-01-11 21:07:00,
2013-01-11 15:09:00,69.8,49.8,-100.00,SSW,195,8.0,28.0,49,0.00,,,0.00,meteohub,2013-01-11 21:09:00,
2013-01-11 15:11:00,70.2,49.6,-100.00,SSW,192,17.0,28.0,48,0.00,,,0.00,meteohub,2013-01-11 21:11:00,
2013-01-11 15:12:00,70.3,49.1,-100.00,South,188,9.0,28.0,47,0.00,,,0.00,meteohub,2013-01-11 21:12:00,
2013-01-11 15:15:00,70.3,49.6,-100.00,SSW,199,14.0,28.0,48,0.00,,,0.00,meteohub,2013-01-11 21:15:00,
2013-01-11 15:16:00,70.3,49.6,-100.00,SSW,210,18.0,28.0,48,0.00,,,0.00,meteohub,2013-01-11 21:16:00,
2013-01-11 15:17:00,70.3,49.6,-100.00,SSW,207,23.0,28.0,48,0.00,,,0.00,meteohub,2013-01-11 21:17:00,
2013-01-11 15:20:00,70.2,49.6,-100.00,SSW,195,16.0,27.0,48,0.00,,,0.00,meteohub,2013-01-11 21:20:00,
2013-01-11 15:21:00,70.2,49.6,-100.00,SW,215,13.0,27.0,48,0.00,,,0.00,meteohub,2013-01-11 21:21:00,
2013-01-11 15:22:00,70.0,49.5,-100.00,SSW,210,18.0,27.0,48,0.00,,,0.00,meteohub,2013-01-11 21:22:00,
2013-01-11 15:23:00,70.0,49.5,-100.00,SSW,200,14.0,27.0,48,0.00,,,0.00,meteohub,2013-01-11 21:23:00,
2013-01-11 15:25:00,70.0,49.5,-100.00,South,181,19.0,27.0,48,0.00,,,0.00,meteohub,2013-01-11 21:25:00,
2013-01-11 15:27:00,69.8,49.3,-100.00,SSW,202,14.0,27.0,48,0.00,,,0.00,meteohub,2013-01-11 21:27:00,
2013-01-11 15:28:00,69.6,49.1,-100.00,South,190,12.0,27.0,48,0.00,,,0.00,meteohub,2013-01-11 21:28:00,
2013-01-11 15:31:00,69.4,48.9,-100.00,SSW,193,16.0,27.0,48,0.00,,,0.00,meteohub,2013-01-11 21:31:00,
2013-01-11 15:32:00,69.4,49.5,-100.00,SSW,204,10.0,27.0,49,0.00,,,0.00,meteohub,2013-01-11 21:32:00,
2013-01-11 15:33:00,69.4,49.5,-100.00,South,189,7.0,27.0,49,0.00,,,0.00,meteohub,2013-01-11 21:33:00,
2013-01-11 15:34:00,69.3,49.3,-100.00,SSE,168,14.0,27.0,49,0.00,,,0.00,meteohub,2013-01-11 21:34:00,
2013-01-11 15:36:00,69.3,49.3,-100.00,SSW,198,10.0,24.0,49,0.00,,,0.00,meteohub,2013-01-11 21:36:00,
2013-01-11 15:37:00,69.4,49.5,-100.00,SSW,200,11.0,24.0,49,0.00,,,0.00,meteohub,2013-01-11 21:37:00,
2013-01-11 15:38:00,69.4,49.5,-100.00,SSW,198,6.0,24.0,49,0.00,,,0.00,meteohub,2013-01-11 21:38:00,
2013-01-11 15:39:00,69.4,49.5,-100.00,South,187,10.0,24.0,49,0.00,,,0.00,meteohub,2013-01-11 21:39:00,
2013-01-11 15:41:00,69.6,49.6,-100.00,SSW,204,14.0,24.0,49,0.00,,,0.00,meteohub,2013-01-11 21:41:00,
2013-01-11 15:42:00,69.8,49.3,-100.00,South,188,11.0,24.0,48,0.00,,,0.00,meteohub,2013-01-11 21:42:00,
2013-01-11 15:43:00,70.0,49.5,-100.00,SSW,210,12.0,24.0,48,0.00,,,0.00,meteohub,2013-01-11 21:43:00,
2013-01-11 15:44:00,70.2,49.6,-100.00,SSW,199,9.0,24.0,48,0.00,,,0.00,meteohub,2013-01-11 21:44:00,
2013-01-11 15:46:00,70.3,49.6,-100.00,South,188,8.0,19.0,48,0.00,,,0.00,meteohub,2013-01-11 21:46:00,
2013-01-11 15:48:00,70.5,49.8,-100.00,SSW,200,9.0,19.0,48,0.00,,,0.00,meteohub,2013-01-11 21:48:00,
2013-01-11 15:49:00,70.9,50.2,-100.00,SSW,211,10.0,19.0,48,0.00,,,0.00,meteohub,2013-01-11 21:49:00,
2013-01-11 15:51:00,70.9,49.6,-100.00,South,177,20.0,20.0,47,0.00,,,0.00,meteohub,2013-01-11 21:51:00,
2013-01-11 15:53:00,70.9,50.2,-100.00,SSW,201,16.0,17.0,48,0.00,,,0.00,meteohub,2013-01-11 21:53:00,
2013-01-11 15:54:00,70.9,50.2,-100.00,South,189,12.0,17.0,48,0.00,,,0.00,meteohub,2013-01-11 21:54:00,
2013-01-11 15:56:00,70.9,50.2,-100.00,SSW,198,23.0,31.0,48,0.00,,,0.00,meteohub,2013-01-11 21:56:00,
2013-01-11 15:57:00,70.9,50.2,-100.00,SSW,201,25.0,31.0,48,0.00,,,0.00,meteohub,2013-01-11 21:57:00,
2013-01-11 15:58:00,70.9,50.7,-100.00,South,177,10.0,31.0,49,0.00,,,0.00,meteohub,2013-01-11 21:58:00,
2013-01-11 15:59:00,70.9,50.7,-100.00,SSW,192,15.0,31.0,49,0.00,,,0.00,meteohub,2013-01-11 21:59:00,
2013-01-11 16:01:00,70.9,50.7,-100.00,South,175,17.0,31.0,49,0.00,,,0.00,meteohub,2013-01-11 22:01:00,
2013-01-11 16:02:00,70.5,50.4,-100.00,SSW,195,27.0,31.0,49,0.00,,,0.00,meteohub,2013-01-11 22:02:00,
2013-01-11 16:03:00,70.5,50.9,-100.00,South,190,14.0,31.0,50,0.00,,,0.00,meteohub,2013-01-11 22:03:00,
2013-01-11 16:04:00,70.5,50.9,-100.00,SSW,198,20.0,31.0,50,0.00,,,0.00,meteohub,2013-01-11 22:04:00,
2013-01-11 16:06:00,70.3,50.9,-100.00,SSW,212,20.0,31.0,50,0.00,,,0.00,meteohub,2013-01-11 22:06:00,
2013-01-11 16:07:00,70.3,51.4,-100.00,SSW,199,14.0,31.0,51,0.00,,,0.00,meteohub,2013-01-11 22:07:00,
2013-01-11 16:09:00,70.2,51.3,-100.00,South,170,10.0,31.0,51,0.00,,,0.00,meteohub,2013-01-11 22:09:00,
2013-01-11 16:11:00,70.0,51.6,-100.00,South,190,14.0,32.0,52,0.00,,,0.00,meteohub,2013-01-11 22:11:00,
2013-01-11 16:12:00,70.0,51.6,-100.00,SSW,198,13.0,32.0,52,0.00,,,0.00,meteohub,2013-01-11 22:12:00,
2013-01-11 16:14:00,69.8,52.0,-100.00,South,175,15.0,32.0,53,0.00,,,0.00,meteohub,2013-01-11 22:14:00,
2013-01-11 16:17:00,69.6,51.8,-100.00,South,174,15.0,32.0,53,0.00,,,0.00,meteohub,2013-01-11 22:17:00,
2013-01-11 16:19:00,69.8,52.0,-100.00,SSW,205,10.0,32.0,53,0.00,,,0.00,meteohub,2013-01-11 22:19:00,
2013-01-11 16:22:00,70.2,52.2,-100.00,SW,215,14.0,27.0,53,0.00,,,0.00,meteohub,2013-01-11 22:22:00,
2013-01-11 16:24:00,70.2,52.2,-100.00,South,185,11.0,27.0,53,0.00,,,0.00,meteohub,2013-01-11 22:24:00,
2013-01-11 16:28:00,70.2,52.2,-100.00,South,175,6.0,27.0,53,0.00,,,0.00,meteohub,2013-01-11 22:28:00,
2013-01-11 16:29:00,70.2,52.2,-100.00,SW,214,9.0,27.0,53,0.00,,,0.00,meteohub,2013-01-11 22:29:00,
2013-01-11 16:30:00,70.2,52.2,-100.00,SSW,212,7.0,27.0,53,0.00,,,0.00,meteohub,2013-01-11 22:30:00,
2013-01-11 16:33:00,70.2,52.2,-100.00,SSW,194,17.0,30.0,53,0.00,,,0.00,meteohub,2013-01-11 22:33:00,
2013-01-11 16:35:00,70.2,52.7,-100.00,SSW,204,11.0,30.0,54,0.00,,,0.00,meteohub,2013-01-11 22:35:00,
2013-01-11 16:38:00,69.8,52.3,-100.00,SSW,200,15.0,30.0,54,0.00,,,0.00,meteohub,2013-01-11 22:38:00,
2013-01-11 16:40:00,69.6,52.7,-100.00,SSW,192,10.0,30.0,55,0.00,,,0.00,meteohub,2013-01-11 22:40:00,
2013-01-11 16:41:00,69.6,52.7,-100.00,SSW,194,11.0,30.0,55,0.00,,,0.00,meteohub,2013-01-11 22:41:00,
2013-01-11 16:43:00,69.4,52.5,-100.00,SSW,194,15.0,30.0,55,0.00,,,0.00,meteohub,2013-01-11 22:43:00,
2013-01-11 16:44:00,69.4,53.1,-100.00,SSW,198,17.0,30.0,56,0.00,,,0.00,meteohub,2013-01-11 22:44:00,
2013-01-11 16:46:00,69.1,52.7,-100.00,SSE,163,10.0,25.0,56,0.00,,,0.00,meteohub,2013-01-11 22:46:00,
2013-01-11 16:49:00,68.9,52.5,-100.00,South,190,10.0,25.0,56,0.00,,,0.00,meteohub,2013-01-11 22:49:00,
2013-01-11 16:51:00,68.9,52.5,-100.00,SSW,203,12.0,25.0,56,0.00,,,0.00,meteohub,2013-01-11 22:51:00,
2013-01-11 16:52:00,68.7,52.3,-100.00,SSW,202,11.0,25.0,56,0.00,,,0.00,meteohub,2013-01-11 22:52:00,
2013-01-11 16:54:00,68.7,52.9,-100.00,SSW,194,10.0,25.0,57,0.00,,,0.00,meteohub,2013-01-11 22:54:00,
2013-01-11 16:57:00,68.5,53.6,-100.00,SSW,200,11.0,20.0,59,0.00,,,0.00,meteohub,2013-01-11 22:57:00,
2013-01-11 16:59:00,68.5,52.7,-100.00,SSW,194,12.0,20.0,57,0.00,,,0.00,meteohub,2013-01-11 22:59:00,
2013-01-11 17:00:00,68.4,52.5,-100.00,South,186,7.0,20.0,57,0.00,,,0.00,meteohub,2013-01-11 23:00:00,
2013-01-11 17:02:00,68.4,52.5,-100.00,SSW,205,15.0,20.0,57,0.00,,,0.00,meteohub,2013-01-11 23:02:00,
2013-01-11 17:04:00,68.4,52.5,-100.00,SSW,196,10.0,20.0,57,0.00,,,0.00,meteohub,2013-01-11 23:04:00,
2013-01-11 17:05:00,68.4,52.5,-100.00,South,190,8.0,17.0,57,0.00,,,0.00,meteohub,2013-01-11 23:05:00,
2013-01-11 17:07:00,68.4,52.5,-100.00,SSW,201,9.0,17.0,57,0.00,,,0.00,meteohub,2013-01-11 23:07:00,
2013-01-11 17:09:00,68.4,52.5,-100.00,SSW,192,8.0,17.0,57,0.00,,,0.00,meteohub,2013-01-11 23:09:00,
2013-01-11 17:10:00,68.4,52.5,-100.00,SSW,197,10.0,18.0,57,0.00,,,0.00,meteohub,2013-01-11 23:10:00,
2013-01-11 17:12:00,68.2,52.3,-100.00,South,185,14.0,18.0,57,0.00,,,0.00,meteohub,2013-01-11 23:12:00,
2013-01-11 17:13:00,68.2,52.3,-100.00,SSW,202,11.0,18.0,57,0.00,,,0.00,meteohub,2013-01-11 23:13:00,
2013-01-11 17:14:00,68.2,52.3,-100.00,South,191,9.0,18.0,57,0.00,,,0.00,meteohub,2013-01-11 23:14:00,
2013-01-11 17:15:00,68.2,52.3,-100.00,SSW,194,8.0,18.0,57,0.00,,,0.00,meteohub,2013-01-11 23:15:00,
2013-01-11 17:17:00,67.8,52.0,-100.00,SSW,204,10.0,18.0,57,0.00,,,0.00,meteohub,2013-01-11 23:17:00,
2013-01-11 17:18:00,67.8,52.0,-100.00,SSW,198,10.0,18.0,57,0.00,,,0.00,meteohub,2013-01-11 23:18:00,
2013-01-11 17:19:00,67.8,52.0,-100.00,South,188,6.0,18.0,57,0.00,,,0.00,meteohub,2013-01-11 23:19:00,
2013-01-11 17:20:00,67.8,52.5,-100.00,South,190,11.0,18.0,58,0.00,,,0.00,meteohub,2013-01-11 23:20:00,
2013-01-11 17:22:00,67.8,52.5,-100.00,SSW,200,9.0,18.0,58,0.00,,,0.00,meteohub,2013-01-11 23:22:00,
2013-01-11 17:23:00,67.8,52.5,-100.00,SSW,209,13.0,18.0,58,0.00,,,0.00,meteohub,2013-01-11 23:23:00,
2013-01-11 17:24:00,67.6,52.3,-100.00,South,190,8.0,18.0,58,0.00,,,0.00,meteohub,2013-01-11 23:24:00,
2013-01-11 17:25:00,67.6,52.3,-100.00,South,189,6.0,17.0,58,0.00,,,0.00,meteohub,2013-01-11 23:25:00,
2013-01-11 17:27:00,67.5,52.2,-100.00,South,190,3.0,17.0,58,0.00,,,0.00,meteohub,2013-01-11 23:27:00,
2013-01-11 17:28:00,67.5,52.7,-100.00,South,190,5.0,17.0,59,0.00,,,0.00,meteohub,2013-01-11 23:28:00,
2013-01-11 17:29:00,67.3,52.5,-100.00,South,190,9.0,17.0,59,0.00,,,0.00,meteohub,2013-01-11 23:29:00,
2013-01-11 17:30:00,67.3,52.5,-100.00,South,190,5.0,14.0,59,0.00,,,0.00,meteohub,2013-01-11 23:30:00,
2013-01-11 17:33:00,66.9,52.2,-100.00,South,190,5.0,14.0,59,0.00,,,0.00,meteohub,2013-01-11 23:33:00,
2013-01-11 17:34:00,66.9,52.2,-100.00,South,189,6.0,14.0,59,0.00,,,0.00,meteohub,2013-01-11 23:34:00,
2013-01-11 17:35:00,66.9,52.5,-100.00,South,188,5.0,14.0,60,0.00,,,0.00,meteohub,2013-01-11 23:35:00,
2013-01-11 17:36:00,66.7,52.3,-100.00,South,188,4.0,14.0,60,0.00,,,0.00,meteohub,2013-01-11 23:36:00,
2013-01-11 17:38:00,66.6,52.2,-100.00,South,187,4.0,14.0,60,0.00,,,0.00,meteohub,2013-01-11 23:38:00,
2013-01-11 17:39:00,66.4,52.2,-100.00,South,186,4.0,14.0,60,0.00,,,0.00,meteohub,2013-01-11 23:39:00,
2013-01-11 17:40:00,66.4,52.2,-100.00,South,185,3.0,14.0,60,0.00,,,0.00,meteohub,2013-01-11 23:40:00,
2013-01-11 17:41:00,66.4,52.2,-100.00,South,185,4.0,11.0,60,0.00,,,0.00,meteohub,2013-01-11 23:41:00,
2013-01-11 17:43:00,66.0,52.2,-100.00,South,185,4.0,11.0,61,0.00,,,0.00,meteohub,2013-01-11 23:43:00,
2013-01-11 17:44:00,66.0,52.2,-100.00,South,185,3.0,11.0,61,0.00,,,0.00,meteohub,2013-01-11 23:44:00,
2013-01-11 17:45:00,66.0,52.2,-100.00,South,185,3.0,11.0,61,0.00,,,0.00,meteohub,2013-01-11 23:45:00,
2013-01-11 17:47:00,65.8,52.0,-100.00,South,185,3.0,10.0,61,0.00,,,0.00,meteohub,2013-01-11 23:47:00,
2013-01-11 17:49:00,65.7,52.3,-100.00,South,185,4.0,10.0,62,0.00,,,0.00,meteohub,2013-01-11 23:49:00,
2013-01-11 17:50:00,65.7,52.3,-100.00,South,186,3.0,10.0,62,0.00,,,0.00,meteohub,2013-01-11 23:50:00,
2013-01-11 17:51:00,65.5,52.2,-100.00,South,186,3.0,10.0,62,0.00,,,0.00,meteohub,2013-01-11 23:51:00,
2013-01-11 17:52:00,65.5,52.2,-100.00,South,186,3.0,10.0,62,0.00,,,0.00,meteohub,2013-01-11 23:52:00,
2013-01-11 17:54:00,65.3,52.3,-100.00,South,186,3.0,10.0,63,0.00,,,0.00,meteohub,2013-01-11 23:54:00,
2013-01-11 17:55:00,65.1,52.2,-100.00,South,186,3.0,10.0,63,0.00,,,0.00,meteohub,2013-01-11 23:55:00,
2013-01-11 17:56:00,65.1,52.2,-100.00,South,186,4.0,10.0,63,0.00,,,0.00,meteohub,2013-01-11 23:56:00,
2013-01-11 17:57:00,64.9,52.0,-100.00,South,186,3.0,10.0,63,0.00,,,0.00,meteohub,2013-01-11 23:57:00,
2013-01-11 17:59:00,64.8,51.8,-100.00,South,186,5.0,10.0,63,0.00,,,0.00,meteohub,2013-01-11 23:59:00,
2013-01-11 18:00:00,64.8,51.8,-100.00,South,186,3.0,9.0,63,0.00,,,0.00,meteohub,2013-01-12 00:00:00,
2013-01-11 18:01:00,64.8,51.8,-100.00,South,186,3.0,9.0,63,0.00,,,0.00,meteohub,2013-01-12 00:01:00,
2013-01-11 18:02:00,64.8,52.3,-100.00,South,186,3.0,9.0,64,0.00,,,0.00,meteohub,2013-01-12 00:02:00,
2013-01-11 18:04:00,64.6,52.2,-100.00,South,186,3.0,9.0,64,0.00,,,0.00,meteohub,2013-01-12 00:04:00,
2013-01-11 18:05:00,64.6,52.2,-100.00,South,186,3.0,9.0,64,0.00,,,0.00,meteohub,2013-01-12 00:05:00,
2013-01-11 18:06:00,64.6,52.2,-100.00,South,187,3.0,9.0,64,0.00,,,0.00,meteohub,2013-01-12 00:06:00,
2013-01-11 18:07:00,64.2,51.8,-100.00,South,187,3.0,9.0,64,0.00,,,0.00,meteohub,2013-01-12 00:07:00,
2013-01-11 18:09:00,64.2,51.8,-100.00,South,187,3.0,9.0,64,0.00,,,0.00,meteohub,2013-01-12 00:09:00,
2013-01-11 18:10:00,64.2,51.8,-100.00,South,187,5.0,9.0,64,0.00,,,0.00,meteohub,2013-01-12 00:10:00,
2013-01-11 18:11:00,64.2,51.8,-100.00,South,187,3.0,9.0,64,0.00,,,0.00,meteohub,2013-01-12 00:11:00,
2013-01-11 18:12:00,64.2,51.8,-100.00,South,187,5.0,9.0,64,0.00,,,0.00,meteohub,2013-01-12 00:12:00,
2013-01-11 18:14:00,64.0,52.0,-100.00,South,187,4.0,9.0,65,0.00,,,0.00,meteohub,2013-01-12 00:14:00,
2013-01-11 18:16:00,64.0,52.0,-100.00,South,188,4.0,7.0,65,0.00,,,0.00,meteohub,2013-01-12 00:16:00,
2013-01-11 18:17:00,64.0,52.0,-100.00,South,188,3.0,7.0,65,0.00,,,0.00,meteohub,2013-01-12 00:17:00,
2013-01-11 18:20:00,64.0,52.0,-100.00,South,190,0.0,7.0,65,0.00,,,0.00,meteohub,2013-01-12 00:20:00,
2013-01-11 18:21:00,63.9,51.8,-100.00,South,190,1.0,7.0,65,0.00,,,0.00,meteohub,2013-01-12 00:21:00,
2013-01-11 18:22:00,63.9,51.8,-100.00,South,190,3.0,7.0,65,0.00,,,0.00,meteohub,2013-01-12 00:22:00,
2013-01-11 18:25:00,63.9,51.8,-100.00,South,190,2.0,7.0,65,0.00,,,0.00,meteohub,2013-01-12 00:25:00,
2013-01-11 18:26:00,63.9,51.8,-100.00,South,190,3.0,7.0,65,0.00,,,0.00,meteohub,2013-01-12 00:26:00,
2013-01-11 18:27:00,63.9,51.8,-100.00,South,190,4.0,7.0,65,0.00,,,0.00,meteohub,2013-01-12 00:27:00,
2013-01-11 18:28:00,63.9,51.8,-100.00,South,190,4.0,7.0,65,0.00,,,0.00,meteohub,2013-01-12 00:28:00,
2013-01-11 18:31:00,63.7,51.6,-100.00,South,190,3.0,7.0,65,0.00,,,0.00,meteohub,2013-01-12 00:31:00,
2013-01-11 18:32:00,63.7,51.6,-100.00,South,190,5.0,7.0,65,0.00,,,0.00,meteohub,2013-01-12 00:32:00,
2013-01-11 18:33:00,63.7,51.6,-100.00,South,190,4.0,7.0,65,0.00,,,0.00,meteohub,2013-01-12 00:33:00,
2013-01-11 18:36:00,63.7,51.6,-100.00,South,190,3.0,6.0,65,0.00,,,0.00,meteohub,2013-01-12 00:36:00,
2013-01-11 18:37:00,63.7,51.6,-100.00,South,190,3.0,6.0,65,0.00,,,0.00,meteohub,2013-01-12 00:37:00,
2013-01-11 18:38:00,63.7,51.6,-100.00,South,190,5.0,6.0,65,0.00,,,0.00,meteohub,2013-01-12 00:38:00,
2013-01-11 18:41:00,63.7,51.6,-100.00,South,190,4.0,6.0,65,0.00,,,0.00,meteohub,2013-01-12 00:41:00,
2013-01-11 18:42:00,63.7,51.6,-100.00,South,190,5.0,6.0,65,0.00,,,0.00,meteohub,2013-01-12 00:42:00,
2013-01-11 18:44:00,63.7,51.6,-100.00,South,190,4.0,6.0,65,0.00,,,0.00,meteohub,2013-01-12 00:44:00,
2013-01-11 18:46:00,63.5,51.4,-100.00,South,190,2.0,7.0,65,0.00,,,0.00,meteohub,2013-01-12 00:46:00,
2013-01-11 18:47:00,63.5,51.4,-100.00,South,190,4.0,7.0,65,0.00,,,0.00,meteohub,2013-01-12 00:47:00,
2013-01-11 18:48:00,63.5,51.4,-100.00,South,190,4.0,7.0,65,0.00,,,0.00,meteohub,2013-01-12 00:48:00,
2013-01-11 18:49:00,63.5,51.4,-100.00,South,190,5.0,7.0,65,0.00,,,0.00,meteohub,2013-01-12 00:49:00,
2013-01-11 18:52:00,63.3,51.8,-100.00,South,190,2.0,7.0,66,0.00,,,0.00,meteohub,2013-01-12 00:52:00,
2013-01-11 18:53:00,63.3,51.8,-100.00,South,190,3.0,7.0,66,0.00,,,0.00,meteohub,2013-01-12 00:53:00,
2013-01-11 18:54:00,63.3,51.8,-100.00,South,190,4.0,7.0,66,0.00,,,0.00,meteohub,2013-01-12 00:54:00,
2013-01-11 18:58:00,63.1,51.6,-100.00,South,190,3.0,7.0,66,0.00,,,0.00,meteohub,2013-01-12 00:58:00,
2013-01-11 18:59:00,63.1,51.6,-100.00,South,190,3.0,7.0,66,0.00,,,0.00,meteohub,2013-01-12 00:59:00,
2013-01-11 19:00:00,63.1,51.6,-100.00,South,190,2.0,7.0,66,0.00,,,0.00,meteohub,2013-01-12 01:00:00,
2013-01-11 19:01:00,63.1,52.0,-100.00,South,190,2.0,6.0,67,0.00,,,0.00,meteohub,2013-01-12 01:01:00,
2013-01-11 19:03:00,63.1,52.0,-100.00,South,190,3.0,6.0,67,0.00,,,0.00,meteohub,2013-01-12 01:03:00,
2013-01-11 19:05:00,63.1,52.0,-100.00,South,190,3.0,6.0,67,0.00,,,0.00,meteohub,2013-01-12 01:05:00,
2013-01-11 19:06:00,63.1,52.0,-100.00,South,190,2.0,6.0,67,0.00,,,0.00,meteohub,2013-01-12 01:06:00,
2013-01-11 19:09:00,63.1,52.0,-100.00,South,189,4.0,6.0,67,0.00,,,0.00,meteohub,2013-01-12 01:09:00,
2013-01-11 19:10:00,63.1,52.0,-100.00,South,189,4.0,6.0,67,0.00,,,0.00,meteohub,2013-01-12 01:10:00,
2013-01-11 19:11:00,63.1,52.0,-100.00,South,189,3.0,6.0,67,0.00,,,0.00,meteohub,2013-01-12 01:11:00,
2013-01-11 19:14:00,63.1,52.3,-100.00,South,187,6.0,6.0,68,0.00,,,0.00,meteohub,2013-01-12 01:14:00,
2013-01-11 19:16:00,63.1,52.0,-100.00,South,186,5.0,7.0,67,0.00,,,0.00,meteohub,2013-01-12 01:16:00,
2013-01-11 19:17:00,63.1,52.0,-100.00,South,186,2.0,7.0,67,0.00,,,0.00,meteohub,2013-01-12 01:17:00,
2013-01-11 19:19:00,63.3,52.2,-100.00,South,186,4.0,7.0,67,0.00,,,0.00,meteohub,2013-01-12 01:19:00,
2013-01-11 19:21:00,63.3,52.5,-100.00,South,186,4.0,7.0,68,0.00,,,0.00,meteohub,2013-01-12 01:21:00,
2013-01-11 19:22:00,63.3,52.5,-100.00,South,185,6.0,7.0,68,0.00,,,0.00,meteohub,2013-01-12 01:22:00,
2013-01-11 19:24:00,63.5,52.7,-100.00,South,182,4.0,7.0,68,0.00,,,0.00,meteohub,2013-01-12 01:24:00,
2013-01-11 19:26:00,63.7,52.9,-100.00,South,182,3.0,8.0,68,0.00,,,0.00,meteohub,2013-01-12 01:26:00,
2013-01-11 19:27:00,63.7,52.9,-100.00,South,182,3.0,8.0,68,0.00,,,0.00,meteohub,2013-01-12 01:27:00,
2013-01-11 19:29:00,63.7,52.9,-100.00,South,182,4.0,8.0,68,0.00,,,0.00,meteohub,2013-01-12 01:29:00,
2013-01-11 19:31:00,63.9,53.1,-100.00,South,181,6.0,8.0,68,0.00,,,0.00,meteohub,2013-01-12 01:31:00,
2013-01-11 19:32:00,63.9,53.1,-100.00,South,181,4.0,8.0,68,0.00,,,0.00,meteohub,2013-01-12 01:32:00,
2013-01-11 19:34:00,63.9,53.1,-100.00,South,181,4.0,8.0,68,0.00,,,0.00,meteohub,2013-01-12 01:34:00,
2013-01-11 19:36:00,64.0,53.6,-100.00,South,181,3.0,8.0,69,0.00,,,0.00,meteohub,2013-01-12 01:36:00,
2013-01-11 19:37:00,64.0,53.6,-100.00,South,181,2.0,8.0,69,0.00,,,0.00,meteohub,2013-01-12 01:37:00,
2013-01-11 19:38:00,64.0,53.6,-100.00,South,181,1.0,8.0,69,0.00,,,0.00,meteohub,2013-01-12 01:38:00,
2013-01-11 19:39:00,64.0,53.6,-100.00,South,181,2.0,8.0,69,0.00,,,0.00,meteohub,2013-01-12 01:39:00,
2013-01-11 19:42:00,64.0,53.6,-100.00,South,181,2.0,7.0,69,0.00,,,0.00,meteohub,2013-01-12 01:42:00,
2013-01-11 19:43:00,64.0,54.1,-100.00,South,181,3.0,7.0,70,0.00,,,0.00,meteohub,2013-01-12 01:43:00,
2013-01-11 19:44:00,64.0,54.1,-100.00,South,181,3.0,7.0,70,0.00,,,0.00,meteohub,2013-01-12 01:44:00,
2013-01-11 19:47:00,64.0,54.1,-100.00,South,181,3.0,6.0,70,0.00,,,0.00,meteohub,2013-01-12 01:47:00,
2013-01-11 19:48:00,63.9,54.0,-100.00,South,181,2.0,6.0,70,0.00,,,0.00,meteohub,2013-01-12 01:48:00,
2013-01-11 19:50:00,64.0,54.5,-100.00,South,181,3.0,6.0,71,0.00,,,0.00,meteohub,2013-01-12 01:50:00,
2013-01-11 19:53:00,64.0,54.5,-100.00,South,182,5.0,6.0,71,0.00,,,0.00,meteohub,2013-01-12 01:53:00,
2013-01-11 19:55:00,64.0,54.5,-100.00,South,182,3.0,6.0,71,0.00,,,0.00,meteohub,2013-01-12 01:55:00,
2013-01-11 19:58:00,64.0,54.9,-100.00,South,182,3.0,9.0,72,0.00,,,0.00,meteohub,2013-01-12 01:58:00,
2013-01-11 20:00:00,64.2,55.0,-100.00,South,182,3.0,9.0,72,0.00,,,0.00,meteohub,2013-01-12 02:00:00,
2013-01-11 20:03:00,64.2,55.0,-100.00,South,182,2.0,9.0,72,0.00,,,0.00,meteohub,2013-01-12 02:03:00,
2013-01-11 20:04:00,64.2,55.0,-100.00,South,182,2.0,9.0,72,0.00,,,0.00,meteohub,2013-01-12 02:04:00,
2013-01-11 20:05:00,64.2,55.4,-100.00,South,182,4.0,9.0,73,0.00,,,0.00,meteohub,2013-01-12 02:05:00,
2013-01-11 20:08:00,64.2,55.4,-100.00,South,184,2.0,9.0,73,0.00,,,0.00,meteohub,2013-01-12 02:08:00,
2013-01-11 20:09:00,64.2,55.4,-100.00,South,184,5.0,9.0,73,0.00,,,0.00,meteohub,2013-01-12 02:09:00,
2013-01-11 20:11:00,64.2,55.4,-100.00,South,184,3.0,9.0,73,0.00,,,0.00,meteohub,2013-01-12 02:11:00,
2013-01-11 20:13:00,64.2,55.4,-100.00,South,184,5.0,9.0,73,0.00,,,0.00,meteohub,2013-01-12 02:13:00,
2013-01-11 20:14:00,64.2,55.4,-100.00,South,184,2.0,9.0,73,0.00,,,0.00,meteohub,2013-01-12 02:14:00,
2013-01-11 20:17:00,64.2,55.4,-100.00,South,184,4.0,9.0,73,0.00,,,0.00,meteohub,2013-01-12 02:17:00,
2013-01-11 20:19:00,64.2,55.4,-100.00,South,183,2.0,9.0,73,0.00,,,0.00,meteohub,2013-01-12 02:19:00,
2013-01-11 20:22:00,64.2,55.8,-100.00,South,183,2.0,7.0,74,0.00,,,0.00,meteohub,2013-01-12 02:22:00,
2013-01-11 20:24:00,64.2,55.8,-100.00,South,183,4.0,7.0,74,0.00,,,0.00,meteohub,2013-01-12 02:24:00,
2013-01-11 20:25:00,64.2,55.8,-100.00,South,183,4.0,7.0,74,0.00,,,0.00,meteohub,2013-01-12 02:25:00,
2013-01-11 20:27:00,64.2,55.8,-100.00,South,183,5.0,10.0,74,0.00,,,0.00,meteohub,2013-01-12 02:27:00,
2013-01-11 20:29:00,64.2,55.8,-100.00,South,186,3.0,10.0,74,0.00,,,0.00,meteohub,2013-01-12 02:29:00,
2013-01-11 20:30:00,64.2,55.8,-100.00,South,186,4.0,10.0,74,0.00,,,0.00,meteohub,2013-01-12 02:30:00,
2013-01-11 20:32:00,64.2,55.8,-100.00,South,185,4.0,10.0,74,0.00,,,0.00,meteohub,2013-01-12 02:32:00,
2013-01-11 20:34:00,64.2,55.8,-100.00,South,185,4.0,10.0,74,0.00,,,0.00,meteohub,2013-01-12 02:34:00,
2013-01-11 20:35:00,64.2,55.8,-100.00,South,185,3.0,10.0,74,0.00,,,0.00,meteohub,2013-01-12 02:35:00,
2013-01-11 20:36:00,64.2,55.8,-100.00,South,185,3.0,11.0,74,0.00,,,0.00,meteohub,2013-01-12 02:36:00,
2013-01-11 20:37:00,64.2,55.8,-100.00,South,185,4.0,11.0,74,0.00,,,0.00,meteohub,2013-01-12 02:37:00,
2013-01-11 20:40:00,64.0,55.9,-100.00,South,183,5.0,11.0,75,0.00,,,0.00,meteohub,2013-01-12 02:40:00,
2013-01-11 20:42:00,64.0,55.9,-100.00,South,182,5.0,11.0,75,0.00,,,0.00,meteohub,2013-01-12 02:42:00,
2013-01-11 20:45:00,64.0,55.9,-100.00,South,183,5.0,11.0,75,0.00,,,0.00,meteohub,2013-01-12 02:45:00,
2013-01-11 20:47:00,64.0,56.3,-100.00,South,183,7.0,9.0,76,0.00,,,0.00,meteohub,2013-01-12 02:47:00,
2013-01-11 20:50:00,64.0,56.3,-100.00,South,188,8.0,9.0,76,0.00,,,0.00,meteohub,2013-01-12 02:50:00,
2013-01-11 20:52:00,64.0,56.7,-100.00,South,187,3.0,10.0,77,0.00,,,0.00,meteohub,2013-01-12 02:52:00,
2013-01-11 20:56:00,64.0,56.7,-100.00,South,185,6.0,10.0,77,0.00,,,0.00,meteohub,2013-01-12 02:56:00,
2013-01-11 20:58:00,64.2,56.8,-100.00,South,186,4.0,10.0,77,0.00,,,0.00,meteohub,2013-01-12 02:58:00,
2013-01-11 21:01:00,64.2,57.2,-100.00,South,181,5.0,11.0,78,0.00,,,0.00,meteohub,2013-01-12 03:01:00,
2013-01-11 21:03:00,64.2,57.2,-100.00,South,188,11.0,11.0,78,0.00,,,0.00,meteohub,2013-01-12 03:03:00,
2013-01-11 21:06:00,64.2,57.2,-100.00,South,182,5.0,11.0,78,0.00,,,0.00,meteohub,2013-01-12 03:06:00,
2013-01-11 21:07:00,64.2,57.2,-100.00,South,180,4.0,11.0,78,0.00,,,0.00,meteohub,2013-01-12 03:07:00,
2013-01-11 21:08:00,64.2,57.2,-100.00,South,173,4.0,11.0,78,0.00,,,0.00,meteohub,2013-01-12 03:08:00,
2013-01-11 21:11:00,64.2,57.6,-100.00,South,186,5.0,13.0,79,0.00,,,0.00,meteohub,2013-01-12 03:11:00,
2013-01-11 21:13:00,64.2,57.6,-100.00,South,177,7.0,13.0,79,0.00,,,0.00,meteohub,2013-01-12 03:13:00,
2013-01-11 21:17:00,64.2,57.6,-100.00,South,178,5.0,13.0,79,0.00,,,0.00,meteohub,2013-01-12 03:17:00,
2013-01-11 21:18:00,64.2,57.6,-100.00,South,175,4.0,13.0,79,0.00,,,0.00,meteohub,2013-01-12 03:18:00,
2013-01-11 21:19:00,64.2,57.6,-100.00,South,175,5.0,13.0,79,0.00,,,0.00,meteohub,2013-01-12 03:19:00,
2013-01-11 21:22:00,64.2,57.9,-100.00,South,176,9.0,13.0,80,0.00,,,0.00,meteohub,2013-01-12 03:22:00,
2013-01-11 21:24:00,64.2,57.9,-100.00,South,178,6.0,13.0,80,0.00,,,0.00,meteohub,2013-01-12 03:24:00,
2013-01-11 21:27:00,64.2,57.9,-100.00,South,177,5.0,12.0,80,0.00,,,0.00,meteohub,2013-01-12 03:27:00,
2013-01-11 21:29:00,64.2,57.9,-100.00,South,179,6.0,12.0,80,0.00,,,0.00,meteohub,2013-01-12 03:29:00,
2013-01-11 21:33:00,64.2,57.9,-100.00,South,176,4.0,11.0,80,0.00,,,0.00,meteohub,2013-01-12 03:33:00,
2013-01-11 21:34:00,64.2,57.9,-100.00,South,180,10.0,11.0,80,0.00,,,0.00,meteohub,2013-01-12 03:34:00,
2013-01-11 21:38:00,64.0,58.1,-100.00,South,179,4.0,11.0,81,0.00,,,0.00,meteohub,2013-01-12 03:38:00,
2013-01-11 21:39:00,64.0,58.1,-100.00,South,179,5.0,11.0,81,0.00,,,0.00,meteohub,2013-01-12 03:39:00,
2013-01-11 21:40:00,64.0,58.1,-100.00,South,181,7.0,11.0,81,0.00,,,0.00,meteohub,2013-01-12 03:40:00,
2013-01-11 21:44:00,64.0,58.1,-100.00,SSW,200,6.0,10.0,81,0.00,,,0.00,meteohub,2013-01-12 03:44:00,
2013-01-11 21:45:00,64.0,58.1,-100.00,SSW,196,9.0,10.0,81,0.00,,,0.00,meteohub,2013-01-12 03:45:00,
2013-01-11 21:49:00,64.0,58.5,-100.00,SSW,192,7.0,12.0,82,0.00,,,0.00,meteohub,2013-01-12 03:49:00,
2013-01-11 21:50:00,64.0,58.5,-100.00,SSW,193,7.0,12.0,82,0.00,,,0.00,meteohub,2013-01-12 03:50:00,
2013-01-11 21:54:00,64.2,58.6,-100.00,South,186,7.0,12.0,82,0.00,,,0.00,meteohub,2013-01-12 03:54:00,
2013-01-11 21:55:00,64.2,58.6,-100.00,South,190,5.0,16.0,82,0.00,,,0.00,meteohub,2013-01-12 03:55:00,
2013-01-11 21:56:00,64.2,58.6,-100.00,South,191,5.0,16.0,82,0.00,,,0.00,meteohub,2013-01-12 03:56:00,
2013-01-11 21:59:00,64.2,58.6,-100.00,South,188,3.0,16.0,82,0.00,,,0.00,meteohub,2013-01-12 03:59:00,
2013-01-11 22:00:00,64.2,58.6,-100.00,South,188,3.0,16.0,82,0.00,,,0.00,meteohub,2013-01-12 04:00:00,
2013-01-11 22:01:00,64.2,58.6,-100.00,South,188,4.0,16.0,82,0.00,,,0.00,meteohub,2013-01-12 04:01:00,
2013-01-11 22:04:00,64.2,58.6,-100.00,SSW,198,6.0,16.0,82,0.00,,,0.00,meteohub,2013-01-12 04:04:00,
2013-01-11 22:05:00,64.2,59.0,-100.00,SSW,198,3.0,16.0,83,0.00,,,0.00,meteohub,2013-01-12 04:05:00,
2013-01-11 22:06:00,64.2,59.0,-100.00,South,178,5.0,16.0,83,0.00,,,0.00,meteohub,2013-01-12 04:06:00,
2013-01-11 22:09:00,64.2,59.0,-100.00,SSW,192,10.0,16.0,83,0.00,,,0.00,meteohub,2013-01-12 04:09:00,
2013-01-11 22:10:00,64.2,59.0,-100.00,SSW,194,6.0,16.0,83,0.00,,,0.00,meteohub,2013-01-12 04:10:00,
2013-01-11 22:11:00,64.2,59.0,-100.00,South,187,6.0,15.0,83,0.00,,,0.00,meteohub,2013-01-12 04:11:00,
2013-01-11 22:15:00,64.6,59.4,-100.00,SSW,197,11.0,15.0,83,0.00,,,0.00,meteohub,2013-01-12 04:15:00,
2013-01-11 22:16:00,64.6,59.4,-100.00,South,191,5.0,15.0,83,0.00,,,0.00,meteohub,2013-01-12 04:16:00,
2013-01-11 22:20:00,64.6,59.4,-100.00,SSW,202,10.0,15.0,83,0.00,,,0.00,meteohub,2013-01-12 04:20:00,
2013-01-11 22:21:00,64.6,59.4,-100.00,South,187,9.0,15.0,83,0.00,,,0.00,meteohub,2013-01-12 04:21:00,
2013-01-11 22:22:00,64.6,59.4,-100.00,SSW,192,12.0,15.0,83,0.00,,,0.00,meteohub,2013-01-12 04:22:00,
2013-01-11 22:25:00,64.6,59.4,-100.00,South,184,7.0,15.0,83,0.00,,,0.00,meteohub,2013-01-12 04:25:00,
2013-01-11 22:26:00,64.6,59.4,-100.00,SSW,200,10.0,15.0,83,0.00,,,0.00,meteohub,2013-01-12 04:26:00,
2013-01-11 22:27:00,64.6,59.4,-100.00,South,185,8.0,15.0,83,0.00,,,0.00,meteohub,2013-01-12 04:27:00,
2013-01-11 22:30:00,64.8,59.5,-100.00,South,187,6.0,15.0,83,0.00,,,0.00,meteohub,2013-01-12 04:30:00,
2013-01-11 22:31:00,64.6,59.4,-100.00,South,186,7.0,15.0,83,0.00,,,0.00,meteohub,2013-01-12 04:31:00,
2013-01-11 22:32:00,64.8,59.5,-100.00,SSW,194,9.0,15.0,83,0.00,,,0.00,meteohub,2013-01-12 04:32:00,
2013-01-11 22:33:00,64.8,59.5,-100.00,SSW,194,7.0,15.0,83,0.00,,,0.00,meteohub,2013-01-12 04:33:00,
2013-01-11 22:36:00,64.8,59.5,-100.00,South,190,9.0,17.0,83,0.00,,,0.00,meteohub,2013-01-12 04:36:00,
2013-01-11 22:37:00,64.8,59.5,-100.00,South,184,9.0,17.0,83,0.00,,,0.00,meteohub,2013-01-12 04:37:00,
2013-01-11 22:38:00,64.8,59.5,-100.00,SSW,192,10.0,17.0,83,0.00,,,0.00,meteohub,2013-01-12 04:38:00,
2013-01-11 22:41:00,64.8,59.5,-100.00,South,187,10.0,18.0,83,0.00,,,0.00,meteohub,2013-01-12 04:41:00,
2013-01-11 22:42:00,64.8,59.5,-100.00,South,183,10.0,18.0,83,0.00,,,0.00,meteohub,2013-01-12 04:42:00,
2013-01-11 22:43:00,64.8,59.5,-100.00,South,184,10.0,18.0,83,0.00,,,0.00,meteohub,2013-01-12 04:43:00,
2013-01-11 22:47:00,64.8,59.5,-100.00,SSW,196,9.0,19.0,83,0.00,,,0.00,meteohub,2013-01-12 04:47:00,
2013-01-11 22:48:00,64.8,59.5,-100.00,SSW,193,7.0,19.0,83,0.00,,,0.00,meteohub,2013-01-12 04:48:00,
2013-01-11 22:53:00,64.8,59.5,-100.00,SSW,206,13.0,19.0,83,0.00,,,0.00,meteohub,2013-01-12 04:53:00,
2013-01-11 22:54:00,64.8,59.5,-100.00,SSW,199,16.0,19.0,83,0.00,,,0.00,meteohub,2013-01-12 04:54:00,
2013-01-11 22:58:00,64.8,59.5,-100.00,South,182,10.0,19.0,83,0.00,,,0.00,meteohub,2013-01-12 04:58:00,
2013-01-11 22:59:00,64.8,59.5,-100.00,South,188,11.0,19.0,83,0.00,,,0.00,meteohub,2013-01-12 04:59:00,
2013-01-11 23:00:00,64.8,59.5,-100.00,South,186,7.0,19.0,83,0.00,,,0.00,meteohub,2013-01-12 05:00:00,
2013-01-11 23:01:00,64.8,59.5,-100.00,SSW,198,12.0,19.0,83,0.00,,,0.00,meteohub,2013-01-12 05:01:00,
2013-01-11 23:03:00,64.8,59.5,-100.00,SSW,192,12.0,19.0,83,0.00,,,0.00,meteohub,2013-01-12 05:03:00,
2013-01-11 23:05:00,64.8,59.9,-100.00,SSW,197,9.0,19.0,84,0.00,,,0.00,meteohub,2013-01-12 05:05:00,
2013-01-11 23:06:00,64.8,59.9,-100.00,South,180,4.0,19.0,84,0.00,,,0.00,meteohub,2013-01-12 05:06:00,
2013-01-11 23:07:00,64.8,59.9,-100.00,South,177,12.0,19.0,84,0.00,,,0.00,meteohub,2013-01-12 05:07:00,
2013-01-11 23:08:00,64.8,59.9,-100.00,South,178,5.0,19.0,84,0.00,,,0.00,meteohub,2013-01-12 05:08:00,
2013-01-11 23:10:00,64.8,59.9,-100.00,South,177,14.0,19.0,84,0.00,,,0.00,meteohub,2013-01-12 05:10:00,
2013-01-11 23:11:00,64.8,59.9,-100.00,South,185,5.0,19.0,84,0.00,,,0.00,meteohub,2013-01-12 05:11:00,
2013-01-11 23:12:00,64.8,59.9,-100.00,South,186,7.0,19.0,84,0.00,,,0.00,meteohub,2013-01-12 05:12:00,
2013-01-11 23:13:00,64.8,59.9,-100.00,South,188,13.0,19.0,84,0.00,,,0.00,meteohub,2013-01-12 05:13:00,
2013-01-11 23:15:00,64.8,59.9,-100.00,South,185,15.0,19.0,84,0.00,,,0.00,meteohub,2013-01-12 05:15:00,
2013-01-11 23:16:00,64.8,59.9,-100.00,SSW,192,12.0,19.0,84,0.00,,,0.00,meteohub,2013-01-12 05:16:00,
2013-01-11 23:17:00,64.8,59.9,-100.00,South,186,10.0,19.0,84,0.00,,,0.00,meteohub,2013-01-12 05:17:00,
2013-01-11 23:18:00,64.8,59.9,-100.00,SSW,200,12.0,19.0,84,0.00,,,0.00,meteohub,2013-01-12 05:18:00,
2013-01-11 23:21:00,64.8,59.9,-100.00,SSW,197,17.0,19.0,84,0.00,,,0.00,meteohub,2013-01-12 05:21:00,
2013-01-11 23:22:00,64.8,59.9,-100.00,SSW,200,11.0,19.0,84,0.00,,,0.00,meteohub,2013-01-12 05:22:00,
2013-01-11 23:24:00,64.8,59.9,-100.00,South,188,5.0,19.0,84,0.00,,,0.00,meteohub,2013-01-12 05:24:00,
2013-01-11 23:26:00,64.8,59.9,-100.00,SSW,192,9.0,19.0,84,0.00,,,0.00,meteohub,2013-01-12 05:26:00,
2013-01-11 23:27:00,64.8,59.9,-100.00,SSW,200,10.0,19.0,84,0.00,,,0.00,meteohub,2013-01-12 05:27:00,
2013-01-11 23:29:00,64.8,59.9,-100.00,SSW,194,10.0,19.0,84,0.00,,,0.00,meteohub,2013-01-12 05:29:00,
2013-01-11 23:31:00,64.8,59.9,-100.00,SSW,199,11.0,22.0,84,0.00,,,0.00,meteohub,2013-01-12 05:31:00,
2013-01-11 23:32:00,64.8,59.9,-100.00,SSW,203,6.0,22.0,84,0.00,,,0.00,meteohub,2013-01-12 05:32:00,
2013-01-11 23:34:00,64.8,59.9,-100.00,SSW,200,10.0,22.0,84,0.00,,,0.00,meteohub,2013-01-12 05:34:00,
2013-01-11 23:37:00,64.8,59.9,-100.00,SSW,202,8.0,22.0,84,0.00,,,0.00,meteohub,2013-01-12 05:37:00,
2013-01-11 23:40:00,64.8,59.9,-100.00,SSW,200,10.0,22.0,84,0.00,,,0.00,meteohub,2013-01-12 05:40:00,
2013-01-11 23:42:00,64.8,59.9,-100.00,SSW,194,10.0,22.0,84,0.00,,,0.00,meteohub,2013-01-12 05:42:00,
2013-01-11 23:45:00,64.8,59.9,-100.00,South,186,6.0,17.0,84,0.00,,,0.00,meteohub,2013-01-12 05:45:00,
2013-01-11 23:47:00,64.8,59.9,-100.00,SSW,200,10.0,17.0,84,0.00,,,0.00,meteohub,2013-01-12 05:47:00,
2013-01-11 23:50:00,64.6,59.7,-100.00,South,186,7.0,17.0,84,0.00,,,0.00,meteohub,2013-01-12 05:50:00,
2013-01-11 23:52:00,64.6,59.7,-100.00,SSW,193,15.0,17.0,84,0.00,,,0.00,meteohub,2013-01-12 05:52:00,
2013-01-11 23:53:00,64.6,59.7,-100.00,SSW,195,10.0,17.0,84,0.00,,,0.00,meteohub,2013-01-12 05:53:00,
2013-01-11 23:56:00,64.2,59.4,-100.00,South,190,6.0,17.0,84,0.00,,,0.00,meteohub,2013-01-12 05:56:00,
2013-01-11 23:57:00,64.2,59.4,-100.00,South,180,5.0,17.0,84,0.00,,,0.00,meteohub,2013-01-12 05:57:00,
2013-01-11 23:58:00,64.2,59.4,-100.00,SSW,202,11.0,17.0,84,0.00,,,0.00,meteohub,2013-01-12 05:58:00,